EW6387 Weather Reports


Display with metric or nautical units.
time (UTC)temp
F
wind
direction
speed
MPH
gust
MPH
rain 1hr
in
rain 24hr
in
rain mn
in
humidity
%
barometer
mb
20200714003126 61 309 0.0 6.0 0.12 0.09 0.04 91 1015.8
20200714003023 61 309 0.0 6.0 0.14 0.09 0.04 91 1015.8
20200714002920 61 309 0.0 6.0 0.14 0.09 0.04 91 1015.8
20200714002814 61 308 0.0 6.0 0.14 0.08 0.04 91 1015.8
20200714002708 61 308 0.0 6.0 0.00 0.08 0.03 91 1015.8
20200714002600 61 309 0.0 6.0 0.00 0.08 0.03 91 1015.8
20200714002456 61 308 0.0 6.0 0.00 0.07 0.03 91 1015.8
20200714002353 61 307 0.0 6.0 0.00 0.07 0.03 91 1015.9
20200714002249 61 307 0.0 6.0 0.00 0.07 0.03 91 1015.9
20200714002143 61 307 0.0 4.0 0.00 0.07 0.03 91 1015.9
20200714002038 61 334 0.0 4.0 0.00 0.07 0.03 91 1015.9
20200714001936 61 334 0.0 4.0 0.00 0.07 0.03 91 1015.9
20200714001830 61 334 0.0 3.0 0.00 0.07 0.03 91 1015.9
20200714001726 61 334 0.0 3.0 0.00 0.07 0.03 91 1015.9
20200714001622 61 334 0.0 3.0 0.00 0.07 0.03 91 1015.9
20200714001516 61 334 0.0 3.0 0.00 0.07 0.03 91 1015.9
20200714001409 61 334 0.0 3.0 0.00 0.07 0.03 91 1015.9
20200714001304 61 334 0.0 3.0 0.00 0.07 0.03 91 1016.0
20200714001157 61 334 0.0 3.0 0.00 0.07 0.03 91 1016.0
20200714001051 61 330 0.0 3.0 0.00 0.07 0.03 91 1016.0
20200714000944 61 330 0.0 3.0 0.00 0.07 0.03 91 1016.0
20200714000836 61 324 0.0 0.0 0.00 0.07 0.03 91 1016.0
20200714000733 61 324 0.0 0.0 0.00 0.07 0.03 91 1016.0
20200714000627 61 324 0.0 4.0 0.00 0.07 0.03 91 1016.0
20200714000523 61 324 0.0 4.0 0.03 0.07 0.03 91 1016.0
20200714000417 61 324 0.0 4.0 0.03 0.07 0.03 91 1016.0
20200714000309 61 324 0.0 4.0 0.03 0.07 0.03 91 1016.0
20200714000206 61 324 0.0 4.0 0.03 0.07 0.03 91 1016.1
20200714000102 61 322 0.0 0.0 0.03 0.07 0.03 91 1016.1
20200713235957 61 321 0.0 4.0 0.03 0.07 0.03 91 1016.1
20200713235854 61 321 0.0 4.0 0.04 0.07 0.03 91 1016.1
20200713235752 61 321 0.0 4.0 0.04 0.07 0.03 91 1016.1
20200713235645 61 326 0.0 5.0 0.04 0.07 0.03 91 1016.1
20200713235542 61 329 0.0 5.0 0.04 0.07 0.03 91 1016.1
20200713235437 61 327 1.0 5.0 0.04 0.07 0.03 91 1016.1
20200713235332 61 327 1.0 5.0 0.04 0.07 0.03 90 1016.1
20200713235229 61 327 1.0 5.0 0.04 0.07 0.03 90 1016.1
20200713235122 61 327 1.0 5.0 0.04 0.07 0.03 90 1016.1
20200713235019 61 332 1.0 5.0 0.04 0.07 0.03 90 1016.2
20200713234912 61 332 1.0 5.0 0.04 0.07 0.03 90 1016.1
20200713234806 61 332 1.0 5.0 0.03 0.07 0.02 90 1016.1
20200713234702 61 332 1.0 5.0 0.03 0.07 0.02 90 1016.2
20200713234558 61 332 1.0 7.0 0.03 0.07 0.02 90 1016.1
20200713234455 61 332 1.0 7.0 0.03 0.07 0.02 90 1016.2
20200713234349 61 330 1.0 7.0 0.03 0.07 0.02 90 1016.2
20200713234241 61 336 1.0 7.0 0.03 0.07 0.02 90 1016.2
20200713234137 61 309 1.0 7.0 0.03 0.07 0.02 90 1016.2
20200713234031 61 308 1.0 7.0 0.03 0.07 0.02 90 1016.2
20200713233925 61 300 1.0 7.0 0.03 0.06 0.02 90 1016.3
20200713233817 61 328 1.0 7.0 0.03 0.06 0.01 90 1016.2
20200713233711 61 326 1.0 7.0 0.03 0.06 0.01 90 1016.2
20200713233604 61 326 1.0 7.0 0.04 0.06 0.01 90 1016.2
20200713233502 61 337 1.0 7.0 0.05 0.06 0.01 90 1016.2
20200713233358 61 335 1.0 7.0 0.05 0.06 0.01 90 1016.2
20200713233254 61 318 1.0 7.0 0.05 0.06 0.01 90 1016.2
20200713233151 61 318 1.0 7.0 0.05 0.06 0.01 90 1016.2
20200713233043 61 342 1.0 7.0 0.05 0.06 0.01 90 1016.2
20200713232940 62 326 1.0 7.0 0.05 0.06 0.01 90 1016.2
20200713232832 62 314 1.0 7.0 0.05 0.06 0.01 90 1016.2
20200713232730 62 319 1.0 7.0 0.05 0.06 0.01 90 1016.3
20200713232625 62 318 1.0 7.0 0.05 0.05 0.01 90 1016.2
20200713232518 62 330 1.0 7.0 0.00 0.05 0.00 90 1016.2
20200713232412 62 324 1.0 7.0 0.00 0.05 0.00 90 1016.3
20200713232307 62 328 1.0 7.0 0.00 0.05 0.00 90 1016.3
20200713232204 62 323 1.0 7.0 0.00 0.05 0.00 90 1016.2
20200713232101 62 323 1.0 7.0 0.00 0.05 0.00 89 1016.2
20200713231954 62 324 1.0 7.0 0.00 0.05 0.00 89 1016.2
20200713231852 62 324 1.0 7.0 0.00 0.05 0.00 89 1016.2
20200713231744 62 322 1.0 7.0 0.00 0.05 0.00 89 1016.3
20200713231642 62 337 1.0 5.0 0.00 0.04 0.00 89 1016.3
20200713231538 62 329 1.0 5.0 0.00 0.04 0.00 89 1016.3
20200713231436 62 329 0.0 5.0 0.00 0.04 0.00 89 1016.3
20200713231333 62 330 0.0 5.0 0.00 0.04 0.00 89 1016.3
20200713231226 62 316 0.0 3.0 0.00 0.04 0.00 89 1016.3
20200713231121 62 309 0.0 3.0 0.00 0.04 0.00 89 1016.3
20200713231017 62 308 0.0 3.0 0.00 0.04 0.00 89 1016.3
20200713230911 62 308 0.0 3.0 0.00 0.04 0.00 89 1016.3
20200713230804 62 307 0.0 3.0 0.00 0.04 0.00 89 1016.3
20200713230659 62 307 0.0 3.0 0.00 0.04 0.00 89 1016.3
20200713230556 62 305 0.0 2.0 0.00 0.04 0.00 89 1016.3
20200713230452 62 305 0.0 2.0 0.00 0.04 0.00 89 1016.3
20200713230346 62 305 0.0 2.0 0.00 0.04 0.00 89 1016.3
20200713230241 62 305 0.0 2.0 0.00 0.04 0.00 89 1016.3
20200713230137 62 305 0.0 2.0 0.00 0.04 0.00 89 1016.3
20200713230031 62 305 0.0 0.0 0.00 0.04 0.00 89 1016.3
20200713225929 62 305 0.0 0.0 0.00 0.04 0.04 89 1016.4
20200713225822 62 305 0.0 0.0 0.00 0.04 0.04 89 1016.4
20200713225720 62 305 0.0 0.0 0.00 0.04 0.04 89 1016.4
20200713225616 62 305 0.0 0.0 0.00 0.04 0.04 89 1016.4
20200713225513 62 305 0.0 2.0 0.00 0.04 0.04 89 1016.4
20200713225406 62 305 0.0 2.0 0.00 0.04 0.04 89 1016.4
20200713225259 62 305 0.0 2.0 0.00 0.03 0.03 89 1016.4
20200713225157 62 305 0.0 2.0 0.00 0.03 0.03 88 1016.4
20200713225050 62 305 0.0 2.0 0.00 0.03 0.03 88 1016.4
20200713224944 62 305 0.0 2.0 0.00 0.03 0.03 88 1016.4
20200713224839 62 305 0.0 2.0 0.00 0.03 0.03 88 1016.4
20200713224733 62 305 0.0 2.0 0.00 0.03 0.03 88 1016.4
20200713224629 62 305 0.0 2.0 0.00 0.03 0.03 88 1016.4
20200713224522 62 305 0.0 2.0 0.00 0.03 0.03 88 1016.4
20200713224414 62 305 0.0 1.0 0.00 0.03 0.03 88 1016.4
20200713224311 62 305 0.0 1.0 0.00 0.03 0.03 88 1016.4
20200713224206 62 305 0.0 1.0 0.00 0.03 0.03 88 1016.4
20200713224100 62 305 0.0 1.0 0.00 0.03 0.03 88 1016.4
20200713223955 62 305 0.0 1.0 0.00 0.03 0.03 88 1016.4
20200713223850 62 305 0.0 1.0 0.00 0.03 0.03 88 1016.4
20200713223743 62 305 0.0 1.0 0.03 0.03 0.03 88 1016.4
20200713223638 62 305 0.0 1.0 0.03 0.03 0.03 88 1016.4
20200713223533 62 305 0.0 3.0 0.03 0.03 0.03 88 1016.5
20200713223428 62 305 0.0 3.0 0.03 0.03 0.03 88 1016.5
20200713223321 62 305 0.0 3.0 0.03 0.03 0.03 88 1016.5
20200713223217 62 305 0.0 3.0 0.03 0.03 0.03 88 1016.5
20200713223114 62 305 0.0 3.0 0.03 0.03 0.03 88 1016.5
20200713223007 62 305 0.0 3.0 0.03 0.03 0.03 88 1016.5
20200713222902 62 305 0.0 3.0 0.03 0.03 0.03 88 1016.5
20200713222755 62 305 0.0 3.0 0.03 0.03 0.03 88 1016.5
20200713222647 62 305 0.0 3.0 0.03 0.03 0.03 88 1016.5
20200713222541 62 305 0.0 3.0 0.03 0.03 0.03 87 1016.5
20200713222439 63 305 0.0 3.0 0.03 0.03 0.03 87 1016.6
20200713222333 63 305 0.0 3.0 0.03 0.03 0.03 87 1016.6
20200713222228 63 305 0.0 3.0 0.03 0.03 0.03 87 1016.6
20200713222124 63 305 0.0 3.0 0.03 0.03 0.03 87 1016.6
20200713222016 63 305 0.0 3.0 0.03 0.03 0.03 87 1016.6
20200713221914 63 304 0.0 1.0 0.03 0.03 0.03 87 1016.5
20200713221810 63 304 0.0 0.0 0.03 0.03 0.03 87 1016.6
20200713221706 63 304 0.0 0.0 0.03 0.03 0.03 87 1016.6
20200713221600 63 304 0.0 0.0 0.04 0.03 0.03 87 1016.6
20200713221455 63 304 0.0 0.0 0.04 0.03 0.03 87 1016.6
20200713221350 63 304 0.0 0.0 0.04 0.03 0.03 87 1016.6
20200713221247 63 304 0.0 0.0 0.04 0.03 0.03 87 1016.6
20200713221140 63 304 0.0 0.0 0.04 0.03 0.03 87 1016.7
20200713221035 63 304 0.0 3.0 0.04 0.03 0.03 87 1016.7
20200713220930 63 304 0.0 3.0 0.04 0.03 0.03 87 1016.7
20200713220824 63 304 0.0 3.0 0.04 0.03 0.03 86 1016.6
20200713220721 63 304 1.0 3.0 0.04 0.03 0.03 86 1016.7
20200713220615 63 304 0.0 3.0 0.04 0.02 0.03 86 1016.7
20200713220509 63 304 0.0 3.0 0.00 0.02 0.02 86 1016.7
20200713220402 63 304 0.0 3.0 0.00 0.02 0.02 86 1016.7
20200713220256 63 304 0.0 3.0 0.00 0.02 0.02 86 1016.7
20200713220151 63 304 0.0 3.0 0.00 0.02 0.02 86 1016.7
20200713220045 63 304 0.0 3.0 0.00 0.02 0.02 86 1016.7
20200713215939 63 304 0.0 3.0 0.00 0.02 0.02 85 1016.7
20200713215833 63 302 0.0 3.0 0.00 0.02 0.02 85 1016.8
20200713215729 63 302 0.0 2.0 0.00 0.02 0.02 85 1016.7
20200713215624 63 294 0.0 2.0 0.00 0.01 0.01 85 1016.8
20200713215517 63 294 0.0 2.0 0.00 0.01 0.01 85 1016.9
20200713215413 63 293 0.0 2.0 0.00 0.01 0.01 85 1016.8
20200713215306 63 293 0.0 2.0 0.00 0.01 0.01 85 1016.9
20200713215200 63 293 0.0 2.0 0.00 0.01 0.01 85 1016.9
20200713215057 63 293 0.0 2.0 0.00 0.01 0.01 85 1017.0
20200713214952 63 293 0.0 2.0 0.00 0.01 0.01 85 1017.0
20200713214850 63 293 0.0 2.0 0.00 0.01 0.01 85 1016.9
20200713214748 63 293 0.0 2.0 0.00 0.01 0.01 84 1016.9
20200713214646 63 293 0.0 2.0 0.00 0.01 0.01 84 1017.0
20200713214538 63 293 0.0 2.0 0.00 0.01 0.01 84 1017.0
20200713214431 63 293 0.0 2.0 0.00 0.01 0.01 84 1017.0
20200713214327 63 286 0.0 1.0 0.00 0.01 0.01 84 1017.0
20200713214221 63 286 0.0 0.0 0.00 0.01 0.01 83 1017.0
20200713214116 63 286 0.0 0.0 0.00 0.01 0.01 83 1017.0
20200713214010 63 286 0.0 1.0 0.00 0.01 0.01 83 1017.0
20200713213906 64 286 0.0 1.0 0.00 0.01 0.01 83 1017.0
20200713213801 64 286 0.0 1.0 0.00 0.01 0.01 83 1017.1
20200713213654 64 286 0.0 1.0 0.00 0.01 0.01 83 1017.1
20200713213550 64 286 0.0 1.0 0.00 0.01 0.01 83 1017.1
20200713213444 64 286 0.0 0.0 0.00 0.01 0.01 83 1017.1
20200713213339 64 286 0.0 0.0 0.00 0.01 0.01 83 1017.1
20200713213238 64 286 0.0 0.0 0.00 0.01 0.01 83 1017.1
20200713213134 64 284 0.0 3.0 0.00 0.00 0.00 83 1017.1
20200713213030 64 284 0.0 3.0 0.00 0.00 0.00 82 1017.1
20200713212926 64 284 0.0 3.0 0.00 0.00 0.00 82 1017.1
20200713212821 64 284 0.0 8.0 0.00 0.00 0.00 82 1017.1
20200713212717 64 284 0.0 8.0 0.00 0.00 0.00 82 1017.1
20200713212612 64 284 0.0 8.0 0.00 0.00 0.00 82 1017.1
20200713212506 64 284 0.0 8.0 0.00 0.00 0.00 82 1017.1
20200713212358 64 284 0.0 8.0 0.00 0.00 0.00 82 1017.1
20200713212254 64 284 1.0 8.0 0.00 0.00 0.00 82 1017.1
20200713212147 64 284 1.0 8.0 0.00 0.00 0.00 82 1017.1
20200713212044 64 284 1.0 8.0 0.00 0.00 0.00 82 1017.1
20200713211938 64 284 1.0 8.0 0.00 0.00 0.00 81 1017.1
20200713211834 64 285 1.0 8.0 0.00 0.00 0.00 81 1017.1
20200713211731 64 285 1.0 8.0 0.00 0.00 0.00 81 1017.1
20200713211626 64 285 1.0 8.0 0.00 0.00 0.00 81 1017.2
20200713211519 64 282 1.0 8.0 0.00 0.00 0.00 80 1017.2
20200713211416 64 282 1.0 8.0 0.00 0.00 0.00 80 1017.2
20200713211314 64 281 1.0 8.0 0.00 0.00 0.00 80 1017.2
20200713211211 64 269 1.0 8.0 0.00 0.00 0.00 80 1017.2
20200713211105 65 291 0.0 8.0 0.00 0.00 0.00 80 1017.2
20200713210959 65 303 0.0 8.0 0.00 0.00 0.00 80 1017.3
20200713210854 65 307 0.0 6.0 0.00 0.00 0.00 80 1017.3
20200713210749 65 293 0.0 6.0 0.00 0.00 0.00 80 1017.3
20200713210641 65 286 0.0 3.0 0.00 0.00 0.00 80 1017.3
20200713210536 65 286 0.0 3.0 0.00 0.00 0.00 80 1017.3
20200713210433 65 285 1.0 3.0 0.00 0.00 0.00 80 1017.3
20200713210328 65 285 1.0 3.0 0.00 0.00 0.00 79 1017.3
20200713210225 65 285 1.0 3.0 0.00 0.00 0.00 79 1017.3
20200713210119 65 296 1.0 3.0 0.00 0.00 0.00 79 1017.3
20200713210015 65 289 1.0 6.0 0.00 0.00 0.00 79 1017.3
20200713205908 65 289 1.0 6.0 0.00 0.00 0.00 79 1017.3
20200713205803 65 289 1.0 6.0 0.00 0.00 0.00 79 1017.3
20200713205656 65 285 1.0 6.0 0.00 0.00 0.00 79 1017.3
20200713205550 65 280 1.0 6.0 0.00 0.00 0.00 78 1017.3
20200713205446 65 291 1.0 6.0 0.00 0.00 0.00 78 1017.3
20200713205338 65 321 1.0 6.0 0.00 0.00 0.00 78 1017.3
20200713205233 66 309 1.0 6.0 0.00 0.00 0.00 78 1017.3
20200713205128 66 330 1.0 6.0 0.00 0.00 0.00 77 1017.3
20200713205021 66 334 1.0 7.0 0.00 0.00 0.00 77 1017.3
20200713204917 66 278 1.0 7.0 0.00 0.00 0.00 77 1017.4
20200713204811 66 312 1.0 7.0 0.00 0.00 0.00 77 1017.3
20200713204708 66 313 1.0 7.0 0.00 0.00 0.00 76 1017.4
20200713204604 66 313 1.0 7.0 0.00 0.00 0.00 76 1017.4
20200713204502 66 316 1.0 7.0 0.00 0.00 0.00 76 1017.3
20200713204354 66 328 2.0 7.0 0.00 0.00 0.00 76 1017.3
20200713204248 66 302 2.0 7.0 0.00 0.00 0.00 75 1017.4
20200713204143 66 283 2.0 7.0 0.00 0.00 0.00 75 1017.3
20200713204037 66 281 2.0 9.0 0.00 0.00 0.00 75 1017.3
20200713203934 66 291 2.0 9.0 0.00 0.00 0.00 75 1017.3
20200713203831 66 289 2.0 9.0 0.00 0.00 0.00 75 1017.3
20200713203723 66 284 2.0 9.0 0.00 0.00 0.00 75 1017.3
20200713203617 66 328 2.0 9.0 0.00 0.00 0.00 75 1017.3
20200713203514 66 336 2.0 9.0 0.00 0.00 0.00 74 1017.3
20200713203411 66 310 2.0 9.0 0.00 0.00 0.00 74 1017.3
20200713203308 66 297 2.0 9.0 0.00 0.00 0.00 74 1017.3
20200713203201 67 301 2.0 9.0 0.00 0.00 0.00 74 1017.3
20200713203055 67 320 2.0 9.0 0.00 0.00 0.00 73 1017.3
20200713202951 67 286 2.0 9.0 0.00 0.00 0.00 73 1017.3
20200713202849 67 292 2.0 9.0 0.00 0.00 0.00 73 1017.3
20200713202745 67 282 2.0 9.0 0.00 0.00 0.00 73 1017.3
20200713202638 67 288 2.0 9.0 0.00 0.00 0.00 72 1017.3
20200713202531 67 283 2.0 9.0 0.00 0.00 0.00 72 1017.3
20200713202426 67 294 1.0 9.0 0.00 0.00 0.00 72 1017.4
20200713202321 67 304 1.0 9.0 0.00 0.00 0.00 72 1017.3
20200713202213 67 311 1.0 9.0 0.00 0.00 0.00 72 1017.3
20200713202106 67 274 1.0 8.0 0.00 0.00 0.00 72 1017.3
20200713202001 67 270 0.0 5.0 0.00 0.00 0.00 72 1017.4
20200713201858 67 284 0.0 5.0 0.00 0.00 0.00 72 1017.3
20200713201753 67 289 0.0 5.0 0.00 0.00 0.00 72 1017.3
20200713201651 67 290 0.0 3.0 0.00 0.00 0.00 72 1017.3
20200713201545 67 293 0.0 3.0 0.00 0.00 0.00 72 1017.3
20200713201440 67 294 0.0 0.0 0.00 0.00 0.00 72 1017.3
20200713201333 67 294 1.0 0.0 0.00 0.00 0.00 72 1017.3
20200713201227 67 294 1.0 4.0 0.00 0.00 0.00 72 1017.3
20200713201120 67 294 1.0 4.0 0.00 0.00 0.00 72 1017.3
20200713201012 67 294 1.0 4.0 0.00 0.00 0.00 72 1017.3
20200713200908 67 294 1.0 4.0 0.00 0.00 0.00 72 1017.3
20200713200806 67 294 1.0 4.0 0.00 0.00 0.00 72 1017.3
20200713200702 67 294 1.0 4.0 0.00 0.00 0.00 72 1017.3
20200713200556 67 294 1.0 6.0 0.00 0.00 0.00 72 1017.2
20200713200454 67 295 1.0 6.0 0.00 0.00 0.00 72 1017.2
20200713200352 67 299 1.0 6.0 0.00 0.00 0.00 72 1017.3
20200713200245 67 304 1.0 6.0 0.00 0.00 0.00 71 1017.3
20200713200138 67 304 1.0 6.0 0.00 0.00 0.00 71 1017.2
20200713200032 67 305 1.0 6.0 0.00 0.00 0.00 71 1017.2
20200713195928 67 314 1.0 6.0 0.00 0.00 0.00 71 1017.2
20200713195822 67 320 1.0 6.0 0.00 0.00 0.00 71 1017.2
20200713195715 67 302 1.0 6.0 0.00 0.00 0.00 71 1017.2
20200713195609 67 291 1.0 5.0 0.00 0.00 0.00 71 1017.2
20200713195503 67 284 1.0 5.0 0.00 0.00 0.00 71 1017.2
20200713195358 67 284 1.0 5.0 0.00 0.00 0.00 71 1017.2
20200713195253 67 287 1.0 5.0 0.00 0.00 0.00 71 1017.3
20200713195149 67 293 1.0 5.0 0.00 0.00 0.00 71 1017.2
20200713195045 67 306 1.0 5.0 0.00 0.00 0.00 71 1017.3
20200713194942 68 307 1.0 5.0 0.00 0.00 0.00 71 1017.2
20200713194837 68 307 1.0 5.0 0.00 0.00 0.00 71 1017.2
20200713194732 68 290 1.0 5.0 0.00 0.00 0.00 71 1017.2
20200713194629 68 294 1.0 4.0 0.00 0.00 0.00 71 1017.2
20200713194525 68 291 1.0 4.0 0.00 0.00 0.00 71 1017.2
20200713194422 68 293 1.0 4.0 0.00 0.00 0.00 71 1017.2
20200713194318 68 293 1.0 4.0 0.00 0.00 0.00 71 1017.3
20200713194212 68 289 1.0 4.0 0.00 0.00 0.00 71 1017.3
20200713194106 68 295 0.0 4.0 0.00 0.00 0.00 71 1017.3
20200713193959 68 324 0.0 4.0 0.00 0.00 0.00 71 1017.3
20200713193855 68 324 0.0 4.0 0.00 0.00 0.00 71 1017.3
20200713193748 68 324 0.0 4.0 0.00 0.00 0.00 71 1017.2
20200713193643 68 326 0.0 3.0 0.00 0.00 0.00 71 1017.3
20200713193537 68 326 0.0 0.0 0.00 0.00 0.00 71 1017.3
20200713193434 68 326 1.0 2.0 0.00 0.00 0.00 71 1017.3
20200713193326 68 326 1.0 2.0 0.00 0.00 0.00 70 1017.3
20200713193221 68 326 1.0 1.0 0.00 0.00 0.00 70 1017.3
20200713193116 68 327 1.0 6.0 0.00 0.00 0.00 70 1017.3
20200713193007 68 324 1.0 6.0 0.00 0.00 0.00 70 1017.3
20200713192903 68 327 1.0 6.0 0.00 0.00 0.00 70 1017.3
20200713192757 68 296 1.0 5.0 0.00 0.00 0.00 70 1017.4
20200713192650 68 291 1.0 9.0 0.00 0.00 0.00 70 1017.3
20200713192544 68 329 1.0 9.0 0.00 0.00 0.00 70 1017.4
20200713192439 68 345 1.0 9.0 0.00 0.00 0.00 70 1017.4
20200713192332 68 312 1.0 9.0 0.00 0.00 0.00 70 1017.4
20200713192226 68 314 1.0 9.0 0.00 0.00 0.00 70 1017.4
20200713192123 68 307 1.0 9.0 0.00 0.00 0.00 70 1017.4
20200713192019 68 324 1.0 9.0 0.00 0.00 0.00 70 1017.3
20200713191912 68 330 2.0 9.0 0.00 0.00 0.00 70 1017.4
20200713191804 68 330 2.0 9.0 0.00 0.00 0.00 70 1017.3
20200713191701 68 314 2.0 9.0 0.00 0.00 0.00 70 1017.4
20200713191554 68 310 2.0 9.0 0.00 0.00 0.00 70 1017.4
20200713191451 68 348 2.0 9.0 0.00 0.00 0.00 70 1017.3
20200713191347 68 331 2.0 9.0 0.00 0.00 0.00 70 1017.3
20200713191242 68 345 1.0 9.0 0.00 0.00 0.00 70 1017.3
20200713191136 68 343 2.0 9.0 0.00 0.00 0.00 70 1017.3
20200713191031 68 343 2.0 9.0 0.00 0.00 0.00 70 1017.3
20200713190927 68 344 2.0 9.0 0.00 0.00 0.00 69 1017.3
20200713190821 68 339 2.0 9.0 0.00 0.00 0.00 69 1017.4
20200713190714 68 328 1.0 9.0 0.00 0.00 0.00 70 1017.4
20200713190610 68 284 1.0 8.0 0.00 0.00 0.00 69 1017.3
20200713190506 68 330 1.0 8.0 0.00 0.00 0.00 69 1017.3
20200713190358 68 329 1.0 10.0 0.00 0.00 0.00 69 1017.4
20200713190249 68 328 2.0 10.0 0.00 0.00 0.00 69 1017.3
20200713190147 68 330 2.0 10.0 0.00 0.00 0.00 69 1017.4
20200713190044 68 309 2.0 10.0 0.00 0.00 0.00 69 1017.4
20200713185940 69 266 2.0 10.0 0.00 0.00 0.00 69 1017.4
20200713185835 69 334 2.0 10.0 0.00 0.00 0.00 69 1017.4
20200713185730 69 330 2.0 10.0 0.00 0.00 0.00 69 1017.4
20200713185623 69 326 2.0 10.0 0.00 0.00 0.00 69 1017.4
20200713185521 69 284 2.0 10.0 0.00 0.00 0.00 68 1017.4
20200713185417 69 309 3.0 10.0 0.00 0.00 0.00 68 1017.4
20200713185312 69 331 3.0 10.0 0.00 0.00 0.00 68 1017.4
20200713185210 69 322 3.0 10.0 0.00 0.00 0.00 68 1017.4
20200713185104 69 340 2.0 10.0 0.00 0.00 0.00 68 1017.4
20200713184957 69 338 2.0 10.0 0.00 0.00 0.00 68 1017.4
20200713184852 69 338 2.0 10.0 0.00 0.00 0.00 68 1017.4
20200713184744 69 313 2.0 10.0 0.00 0.00 0.00 67 1017.5
20200713184637 69 289 2.0 10.0 0.00 0.00 0.00 68 1017.5
20200713184533 69 323 2.0 10.0 0.00 0.00 0.00 67 1017.5
20200713184430 69 344 2.0 10.0 0.00 0.00 0.00 67 1017.5
20200713184324 69 316 2.0 9.0 0.00 0.00 0.00 67 1017.5
20200713184221 69 333 2.0 9.0 0.00 0.00 0.00 67 1017.5
20200713184116 69 337 2.0 9.0 0.00 0.00 0.00 67 1017.5
20200713184008 69 318 2.0 9.0 0.00 0.00 0.00 66 1017.5
20200713183900 69 335 2.0 9.0 0.00 0.00 0.00 66 1017.5
20200713183755 69 296 2.0 9.0 0.00 0.00 0.00 66 1017.5
20200713183649 69 322 2.0 9.0 0.00 0.00 0.00 66 1017.5
20200713183546 69 278 2.0 11.0 0.00 0.00 0.00 66 1017.5
20200713183440 70 302 2.0 11.0 0.00 0.00 0.00 66 1017.5
20200713183336 70 286 3.0 11.0 0.00 0.00 0.00 66 1017.5
20200713183230 70 302 3.0 11.0 0.00 0.00 0.00 65 1017.5
20200713183126 70 332 3.0 11.0 0.00 0.00 0.00 65 1017.5
20200713183020 70 328 3.0 11.0 0.00 0.00 0.00 65 1017.5
20200713182913 70 326 3.0 11.0 0.00 0.00 0.00 65 1017.5
20200713182807 70 330 3.0 11.0 0.00 0.00 0.00 65 1017.5
20200713182703 70 0 3.0 11.0 0.00 0.00 0.00 65 1017.5
20200713182558 70 324 3.0 11.0 0.00 0.00 0.00 65 1017.5
20200713182454 70 340 3.0 11.0 0.00 0.00 0.00 64 1017.5
20200713182348 70 340 3.0 11.0 0.00 0.00 0.00 64 1017.5
20200713182241 70 308 3.0 11.0 0.00 0.00 0.00 64 1017.6
20200713182137 70 331 3.0 11.0 0.00 0.00 0.00 64 1017.5
20200713182034 70 328 3.0 11.0 0.00 0.00 0.00 63 1017.5
20200713181926 70 323 3.0 11.0 0.00 0.00 0.00 63 1017.5
20200713181819 70 326 3.0 11.0 0.00 0.00 0.00 63 1017.5
20200713181714 70 344 3.0 11.0 0.00 0.00 0.00 63 1017.5
20200713181608 70 289 3.0 11.0 0.00 0.00 0.00 63 1017.6
20200713181504 71 330 3.0 11.0 0.00 0.00 0.00 62 1017.5
20200713181358 71 301 3.0 11.0 0.00 0.00 0.00 62 1017.6
20200713181254 71 257 3.0 11.0 0.00 0.00 0.00 62 1017.5
20200713181152 71 318 3.0 11.0 0.00 0.00 0.00 63 1017.5
20200713181048 71 335 2.0 11.0 0.00 0.00 0.00 62 1017.5
20200713180943 71 340 2.0 11.0 0.00 0.00 0.00 62 1017.5
20200713180838 71 322 2.0 11.0 0.00 0.00 0.00 61 1017.5
20200713180734 71 324 2.0 11.0 0.00 0.00 0.00 61 1017.6
20200713180627 71 320 2.0 10.0 0.00 0.00 0.00 61 1017.5
20200713180520 71 324 3.0 11.0 0.00 0.00 0.00 60 1017.5
20200713180412 71 289 3.0 11.0 0.00 0.00 0.00 60 1017.5
20200713180307 71 304 3.0 11.0 0.00 0.00 0.00 60 1017.5
20200713180203 71 309 3.0 11.0 0.00 0.00 0.00 60 1017.5
20200713180100 71 329 3.0 11.0 0.00 0.00 0.00 60 1017.5
20200713175955 71 291 3.0 11.0 0.00 0.00 0.00 60 1017.5
20200713175853 71 305 3.0 11.0 0.00 0.00 0.00 60 1017.5
20200713175751 71 286 3.0 11.0 0.00 0.00 0.00 60 1017.5
20200713175645 71 270 3.0 11.0 0.00 0.00 0.00 59 1017.6
20200713175538 71 332 3.0 11.0 0.00 0.00 0.00 59 1017.5
20200713175434 72 296 3.0 12.0 0.00 0.00 0.00 60 1017.6
20200713175328 72 315 3.0 12.0 0.00 0.00 0.00 60 1017.6
20200713175226 72 330 3.0 12.0 0.00 0.00 0.00 60 1017.5
20200713175122 72 331 3.0 12.0 0.00 0.00 0.00 59 1017.6
20200713175015 72 340 3.0 12.0 0.00 0.00 0.00 59 1017.6
20200713174911 72 296 3.0 12.0 0.00 0.00 0.00 59 1017.6
20200713174804 72 310 3.0 12.0 0.00 0.00 0.00 59 1017.6
20200713174700 72 270 3.0 12.0 0.00 0.00 0.00 59 1017.5
20200713174557 72 334 3.0 12.0 0.00 0.00 0.00 59 1017.7
20200713174454 72 284 3.0 12.0 0.00 0.00 0.00 60 1017.6
20200713174350 72 336 3.0 12.0 0.00 0.00 0.00 60 1017.6
20200713174248 72 323 3.0 12.0 0.00 0.00 0.00 59 1017.6
20200713174144 73 303 3.0 12.0 0.00 0.00 0.00 59 1017.5
20200713174036 73 314 3.0 12.0 0.00 0.00 0.00 59 1017.5
20200713173931 73 336 2.0 12.0 0.00 0.00 0.00 59 1017.6
20200713173823 73 297 2.0 12.0 0.00 0.00 0.00 59 1017.6
20200713173720 73 309 2.0 12.0 0.00 0.00 0.00 58 1017.5
20200713173617 73 333 2.0 12.0 0.00 0.00 0.00 58 1017.5
20200713173512 73 335 2.0 10.0 0.00 0.00 0.00 58 1017.5
20200713173407 73 334 2.0 10.0 0.00 0.00 0.00 57 1017.5
20200713173302 73 316 3.0 10.0 0.00 0.00 0.00 57 1017.5
20200713173158 73 289 3.0 10.0 0.00 0.00 0.00 57 1017.5
20200713173054 73 290 3.0 10.0 0.00 0.00 0.00 56 1017.5
20200713172949 73 304 3.0 10.0 0.00 0.00 0.00 57 1017.5
20200713172842 73 300 3.0 10.0 0.00 0.00 0.00 56 1017.5
20200713172738 73 293 3.0 10.0 0.00 0.00 0.00 56 1017.5
20200713172632 73 277 3.0 10.0 0.00 0.00 0.00 56 1017.5
20200713172529 73 299 3.0 10.0 0.00 0.00 0.00 56 1017.6
20200713172424 73 282 4.0 10.0 0.00 0.00 0.00 55 1017.5
20200713172319 73 273 4.0 9.0 0.00 0.00 0.00 55 1017.5
20200713172216 74 280 3.0 9.0 0.00 0.00 0.00 55 1017.5
20200713172109 74 272 3.0 9.0 0.00 0.00 0.00 55 1017.5
20200713172004 74 269 3.0 11.0 0.00 0.00 0.00 55 1017.5
20200713171901 74 270 3.0 11.0 0.00 0.00 0.00 55 1017.5
20200713171756 74 273 3.0 11.0 0.00 0.00 0.00 55 1017.5
20200713171649 74 299 3.0 11.0 0.00 0.00 0.00 55 1017.5
20200713171545 74 323 3.0 11.0 0.00 0.00 0.00 55 1017.5
20200713171439 74 282 3.0 11.0 0.00 0.00 0.00 55 1017.6
20200713171335 74 267 3.0 11.0 0.00 0.00 0.00 55 1017.5
20200713171228 74 282 3.0 11.0 0.00 0.00 0.00 55 1017.6
20200713171121 74 287 3.0 11.0 0.00 0.00 0.00 55 1017.6
20200713171013 74 280 3.0 11.0 0.00 0.00 0.00 55 1017.6
20200713170909 74 276 3.0 11.0 0.00 0.00 0.00 55 1017.5
20200713170804 74 273 3.0 11.0 0.00 0.00 0.00 55 1017.6
20200713170656 74 272 3.0 11.0 0.00 0.00 0.00 55 1017.6
20200713170554 74 281 3.0 11.0 0.00 0.00 0.00 55 1017.6
20200713170449 74 274 3.0 11.0 0.00 0.00 0.00 54 1017.6
20200713170346 74 272 3.0 11.0 0.00 0.00 0.00 54 1017.6
20200713170239 74 280 3.0 11.0 0.00 0.00 0.00 54 1017.6
20200713170132 74 293 3.0 11.0 0.00 0.00 0.00 53 1017.7
20200713170028 74 266 3.0 11.0 0.00 0.00 0.00 53 1017.6
20200713165922 74 307 3.0 11.0 0.00 0.00 0.00 53 1017.7
20200713165818 74 272 3.0 11.0 0.00 0.00 0.00 53 1017.6
20200713165713 74 294 3.0 11.0 0.00 0.00 0.00 53 1017.7
20200713165608 74 279 3.0 11.0 0.00 0.00 0.00 53 1017.6
20200713165500 74 289 3.0 11.0 0.00 0.00 0.00 53 1017.7
20200713165354 75 278 3.0 11.0 0.00 0.00 0.00 53 1017.7
20200713165248 75 283 3.0 11.0 0.00 0.00 0.00 53 1017.7
20200713165142 75 284 2.0 11.0 0.00 0.00 0.00 52 1017.7
20200713165036 75 255 2.0 11.0 0.00 0.00 0.00 52 1017.7
20200713164932 75 268 2.0 10.0 0.00 0.00 0.00 52 1017.6
20200713164826 75 286 2.0 10.0 0.00 0.00 0.00 53 1017.7
20200713164722 75 284 2.0 8.0 0.00 0.00 0.00 54 1017.7
20200713164619 75 300 2.0 11.0 0.00 0.00 0.00 55 1017.7
20200713164515 75 301 3.0 11.0 0.00 0.00 0.00 54 1017.7
20200713164413 75 306 4.0 11.0 0.00 0.00 0.00 54 1017.7
20200713164306 75 305 4.0 11.0 0.00 0.00 0.00 54 1017.8
20200713164159 75 282 4.0 11.0 0.00 0.00 0.00 53 1017.8
20200713164051 75 286 4.0 11.0 0.00 0.00 0.00 53 1017.8
20200713163946 75 330 5.0 11.0 0.00 0.00 0.00 53 1017.8
20200713163843 75 294 5.0 11.0 0.00 0.00 0.00 52 1017.8
20200713163735 75 270 5.0 11.0 0.00 0.00 0.00 52 1017.8
20200713163628 75 240 5.0 11.0 0.00 0.00 0.00 51 1017.9
20200713163524 75 231 5.0 11.0 0.00 0.00 0.00 51 1017.8
20200713163416 75 275 4.0 11.0 0.00 0.00 0.00 52 1017.9
20200713163309 75 272 4.0 11.0 0.00 0.00 0.00 52 1017.9
20200713163202 75 263 4.0 11.0 0.00 0.00 0.00 52 1017.8
20200713163057 76 271 4.0 11.0 0.00 0.00 0.00 52 1017.9
20200713162950 76 270 3.0 11.0 0.00 0.00 0.00 52 1017.9
20200713162842 76 261 3.0 10.0 0.00 0.00 0.00 52 1017.9
20200713162735 76 262 3.0 14.0 0.00 0.00 0.00 52 1017.8
20200713162629 76 239 3.0 14.0 0.00 0.00 0.00 51 1017.9
20200713162522 76 265 3.0 14.0 0.00 0.00 0.00 52 1017.9
20200713162418 76 284 3.0 14.0 0.00 0.00 0.00 52 1017.9
20200713162312 76 301 3.0 14.0 0.00 0.00 0.00 53 1018.0
20200713162205 75 276 4.0 14.0 0.00 0.00 0.00 53 1018.0
20200713162058 75 334 4.0 14.0 0.00 0.00 0.00 53 1018.0
20200713161954 75 266 4.0 14.0 0.00 0.00 0.00 53 1018.0
20200713161850 75 270 5.0 14.0 0.00 0.00 0.00 54 1018.0
20200713161746 75 266 5.0 14.0 0.00 0.00 0.00 53 1018.0
20200713161640 75 258 6.0 14.0 0.00 0.00 0.00 52 1018.1
20200713161535 75 257 6.0 14.0 0.00 0.00 0.00 52 1018.1
20200713161426 75 276 6.0 14.0 0.00 0.00 0.00 52 1018.1
20200713161324 75 311 6.0 14.0 0.00 0.00 0.00 51 1018.1
20200713161219 75 274 5.0 14.0 0.00 0.00 0.00 52 1018.1
20200713161115 75 263 5.0 14.0 0.00 0.00 0.00 51 1018.1
20200713161012 75 241 5.0 14.0 0.00 0.00 0.00 51 1018.2
20200713160907 75 241 5.0 14.0 0.00 0.00 0.00 51 1018.2
20200713160800 75 274 4.0 14.0 0.00 0.00 0.00 52 1018.2
20200713160658 75 262 4.0 10.0 0.00 0.00 0.00 53 1018.1
20200713160555 75 325 4.0 11.0 0.00 0.00 0.00 52 1018.2
20200713160452 75 270 5.0 11.0 0.00 0.00 0.00 52 1018.2
20200713160347 75 264 5.0 11.0 0.00 0.00 0.00 53 1018.2
20200713160245 75 265 5.0 11.0 0.00 0.00 0.00 52 1018.2
20200713160142 75 277 4.0 11.0 0.00 0.00 0.00 51 1018.2
20200713160036 75 286 4.0 11.0 0.00 0.00 0.00 51 1018.3
20200713155934 75 228 4.0 11.0 0.00 0.00 0.00 51 1018.3
20200713155830 75 272 4.0 11.0 0.00 0.00 0.00 51 1018.2
20200713155723 75 278 4.0 11.0 0.00 0.00 0.00 51 1018.3
20200713155619 76 265 4.0 13.0 0.00 0.00 0.00 51 1018.3
20200713155516 76 278 3.0 13.0 0.00 0.00 0.00 52 1018.4
20200713155411 76 199 3.0 13.0 0.00 0.00 0.00 51 1018.3
20200713155307 76 267 3.0 13.0 0.00 0.00 0.00 52 1018.4
20200713155203 76 270 3.0 13.0 0.00 0.00 0.00 52 1018.4
20200713155056 76 311 3.0 13.0 0.00 0.00 0.00 51 1018.4
20200713154953 76 301 3.0 13.0 0.00 0.00 0.00 51 1018.4
20200713154849 76 262 3.0 13.0 0.00 0.00 0.00 52 1018.4
20200713154741 76 284 3.0 13.0 0.00 0.00 0.00 51 1018.5
20200713154635 76 316 4.0 13.0 0.00 0.00 0.00 51 1018.4
20200713154533 76 275 4.0 13.0 0.00 0.00 0.00 50 1018.5
20200713154426 76 285 4.0 13.0 0.00 0.00 0.00 52 1018.6
20200713154319 76 284 4.0 13.0 0.00 0.00 0.00 51 1018.5
20200713154212 76 284 4.0 13.0 0.00 0.00 0.00 51 1018.6
20200713154110 76 278 4.0 13.0 0.00 0.00 0.00 52 1018.5
20200713154003 76 273 4.0 13.0 0.00 0.00 0.00 52 1018.5
20200713153859 76 325 4.0 13.0 0.00 0.00 0.00 52 1018.6
20200713153755 76 305 4.0 13.0 0.00 0.00 0.00 52 1018.6
20200713153650 76 290 4.0 13.0 0.00 0.00 0.00 52 1018.6
20200713153545 76 295 4.0 11.0 0.00 0.00 0.00 53 1018.7
20200713153438 76 235 3.0 10.0 0.00 0.00 0.00 54 1018.6
20200713153333 76 268 4.0 10.0 0.00 0.00 0.00 52 1018.6
20200713153228 76 259 4.0 10.0 0.00 0.00 0.00 52 1018.7
20200713153122 76 289 4.0 10.0 0.00 0.00 0.00 53 1018.6
20200713153016 75 312 4.0 10.0 0.00 0.00 0.00 53 1018.7
20200713152908 75 287 3.0 10.0 0.00 0.00 0.00 54 1018.7
20200713152806 75 284 3.0 10.0 0.00 0.00 0.00 54 1018.7
20200713152703 75 319 3.0 10.0 0.00 0.00 0.00 53 1018.7
20200713152559 75 342 4.0 10.0 0.00 0.00 0.00 53 1018.7
20200713152452 75 275 4.0 10.0 0.00 0.00 0.00 53 1018.7
20200713152347 75 272 4.0 14.0 0.00 0.00 0.00 52 1018.7
20200713152243 75 272 4.0 14.0 0.00 0.00 0.00 53 1018.8
20200713152135 75 269 4.0 14.0 0.00 0.00 0.00 55 1018.8
20200713152031 75 289 4.0 14.0 0.00 0.00 0.00 54 1018.8
20200713151930 75 289 4.0 14.0 0.00 0.00 0.00 53 1018.8
20200713151827 75 284 4.0 14.0 0.00 0.00 0.00 54 1018.8
20200713151723 75 283 5.0 14.0 0.00 0.00 0.00 53 1018.8
20200713151619 75 269 5.0 14.0 0.00 0.00 0.00 53 1018.8
20200713151514 75 321 4.0 14.0 0.00 0.00 0.00 53 1018.8
20200713151410 75 266 5.0 14.0 0.00 0.00 0.00 53 1018.8
20200713151306 75 270 5.0 14.0 0.00 0.00 0.00 52 1018.8
20200713151200 75 282 6.0 14.0 0.00 0.00 0.00 52 1018.8
20200713151056 75 264 6.0 14.0 0.00 0.00 0.00 51 1018.8
20200713150951 75 272 6.0 14.0 0.00 0.00 0.00 51 1018.8
20200713150844 75 278 6.0 14.0 0.00 0.00 0.00 51 1018.9
20200713150738 75 260 6.0 14.0 0.00 0.00 0.00 51 1018.9
20200713150634 75 268 6.0 14.0 0.00 0.00 0.00 51 1018.9
20200713150526 75 272 5.0 14.0 0.00 0.00 0.00 50 1018.9
20200713150420 75 276 5.0 13.0 0.00 0.00 0.00 51 1018.9
20200713150317 75 270 4.0 13.0 0.00 0.00 0.00 51 1018.9
20200713150209 75 268 4.0 13.0 0.00 0.00 0.00 50 1018.9
20200713150104 75 266 3.0 13.0 0.00 0.00 0.00 50 1018.9
20200713150002 75 203 3.0 13.0 0.00 0.00 0.00 50 1018.9
20200713145855 75 271 4.0 12.0 0.00 0.00 0.00 51 1019.0
20200713145752 75 262 3.0 12.0 0.00 0.00 0.00 52 1019.0
20200713145646 75 295 3.0 12.0 0.00 0.00 0.00 52 1019.0
20200713145539 75 310 4.0 12.0 0.00 0.00 0.00 52 1018.9
20200713145431 75 299 4.0 13.0 0.00 0.00 0.00 53 1019.0
20200713145326 75 278 4.0 13.0 0.00 0.00 0.00 53 1019.0
20200713145223 75 282 4.0 13.0 0.00 0.00 0.00 52 1019.0
20200713145115 75 284 4.0 13.0 0.00 0.00 0.00 52 1019.0
20200713145012 75 298 4.0 13.0 0.00 0.00 0.00 51 1019.0
20200713144907 75 275 4.0 13.0 0.00 0.00 0.00 53 1019.0
20200713144758 75 324 4.0 13.0 0.00 0.00 0.00 53 1019.0
20200713144653 75 278 4.0 13.0 0.00 0.00 0.00 53 1019.0
20200713144547 75 298 5.0 13.0 0.00 0.00 0.00 54 1019.0
20200713144442 75 340 5.0 13.0 0.00 0.00 0.00 53 1019.2
20200713144338 75 276 5.0 13.0 0.00 0.00 0.00 52 1019.1
20200713144232 75 284 6.0 13.0 0.00 0.00 0.00 52 1019.1
20200713144124 75 271 6.0 13.0 0.00 0.00 0.00 51 1019.1
20200713144021 75 303 6.0 13.0 0.00 0.00 0.00 51 1019.1
20200713143919 75 298 6.0 13.0 0.00 0.00 0.00 52 1019.2
20200713143815 75 250 6.0 13.0 0.00 0.00 0.00 50 1019.1
20200713143711 75 266 5.0 13.0 0.00 0.00 0.00 50 1019.2
20200713143609 75 266 5.0 13.0 0.00 0.00 0.00 51 1019.2
20200713143507 75 279 5.0 12.0 0.00 0.00 0.00 50 1019.2
20200713143402 75 277 4.0 12.0 0.00 0.00 0.00 50 1019.2
20200713143255 75 279 4.0 12.0 0.00 0.00 0.00 50 1019.3
20200713143151 75 269 5.0 12.0 0.00 0.00 0.00 51 1019.3
20200713143044 75 287 5.0 12.0 0.00 0.00 0.00 51 1019.3
20200713142937 75 309 5.0 12.0 0.00 0.00 0.00 52 1019.4
20200713142834 75 270 5.0 12.0 0.00 0.00 0.00 52 1019.3
20200713142729 75 295 5.0 12.0 0.00 0.00 0.00 52 1019.4
20200713142623 75 271 5.0 12.0 0.00 0.00 0.00 52 1019.3
20200713142515 75 352 5.0 12.0 0.00 0.00 0.00 51 1019.4
20200713142409 75 305 4.0 12.0 0.00 0.00 0.00 51 1019.4
20200713142303 75 274 4.0 12.0 0.00 0.00 0.00 50 1019.4
20200713142159 75 270 4.0 12.0 0.00 0.00 0.00 47 1019.5
20200713142054 75 268 4.0 12.0 0.00 0.00 0.00 47 1019.4
20200713141948 75 273 4.0 12.0 0.00 0.00 0.00 46 1019.4
20200713141842 75 262 4.0 12.0 0.00 0.00 0.00 46 1019.3
20200713141739 75 271 4.0 12.0 0.00 0.00 0.00 45 1019.4
20200713141636 75 259 5.0 12.0 0.00 0.00 0.00 45 1019.4
20200713141529 75 348 5.0 12.0 0.00 0.00 0.00 45 1019.4
20200713141424 75 264 5.0 12.0 0.00 0.00 0.00 45 1019.4
20200713141318 75 280 5.0 12.0 0.00 0.00 0.00 45 1019.5
20200713141213 75 257 5.0 12.0 0.00 0.00 0.00 45 1019.5
20200713141111 75 317 5.0 12.0 0.00 0.00 0.00 45 1019.5
20200713141007 75 264 6.0 14.0 0.00 0.00 0.00 45 1019.5
20200713140903 75 277 6.0 14.0 0.00 0.00 0.00 44 1019.5
20200713140757 75 287 6.0 14.0 0.00 0.00 0.00 44 1019.6
20200713140651 76 280 5.0 14.0 0.00 0.00 0.00 43 1019.5
20200713140544 76 253 5.0 14.0 0.00 0.00 0.00 42 1019.6
20200713140440 76 264 5.0 14.0 0.00 0.00 0.00 42 1019.5
20200713140337 76 276 6.0 14.0 0.00 0.00 0.00 41 1019.5
20200713140230 76 229 6.0 14.0 0.00 0.00 0.00 41 1019.5
20200713140125 76 295 6.0 14.0 0.00 0.00 0.00 40 1019.5
20200713140023 76 270 6.0 14.0 0.00 0.00 0.00 42 1019.6
20200713135918 76 270 6.0 14.0 0.00 0.00 0.00 42 1019.6
20200713135814 76 282 6.0 14.0 0.00 0.00 0.00 42 1019.6
20200713135711 76 267 6.0 14.0 0.00 0.00 0.00 42 1019.6
20200713135606 76 258 6.0 14.0 0.00 0.00 0.00 41 1019.6
20200713135459 76 258 6.0 14.0 0.00 0.00 0.00 41 1019.6
20200713135353 76 270 6.0 14.0 0.00 0.00 0.00 41 1019.6
20200713135245 76 282 6.0 14.0 0.00 0.00 0.00 40 1019.6
20200713135140 76 254 5.0 14.0 0.00 0.00 0.00 40 1019.6
20200713135034 76 263 5.0 14.0 0.00 0.00 0.00 40 1019.6
20200713134928 76 255 4.0 12.0 0.00 0.00 0.00 41 1019.5
20200713134826 76 261 4.0 12.0 0.00 0.00 0.00 40 1019.6
20200713134722 76 256 4.0 12.0 0.00 0.00 0.00 40 1019.7
20200713134614 76 266 4.0 12.0 0.00 0.00 0.00 40 1019.8
20200713134508 76 282 4.0 12.0 0.00 0.00 0.00 42 1019.5
20200713134406 76 292 4.0 12.0 0.00 0.00 0.00 42 1019.6
20200713134259 76 264 4.0 12.0 0.00 0.00 0.00 43 1019.6
20200713134154 76 312 4.0 12.0 0.00 0.00 0.00 44 1019.6
20200713134052 76 295 5.0 12.0 0.00 0.00 0.00 41 1019.6
20200713133948 76 300 5.0 12.0 0.00 0.00 0.00 41 1019.6
20200713133842 76 298 5.0 12.0 0.00 0.00 0.00 41 1019.6
20200713133739 76 262 4.0 12.0 0.00 0.00 0.00 42 1019.7
20200713133632 76 349 4.0 12.0 0.00 0.00 0.00 42 1019.6
20200713133529 76 276 4.0 12.0 0.00 0.00 0.00 41 1019.6
20200713133423 77 266 4.0 12.0 0.00 0.00 0.00 41 1019.6
20200713133320 77 267 4.0 12.0 0.00 0.00 0.00 41 1019.7
20200713133218 77 268 4.0 12.0 0.00 0.00 0.00 42 1019.6
20200713133114 76 269 4.0 12.0 0.00 0.00 0.00 44 1019.6
20200713133012 76 293 4.0 11.0 0.00 0.00 0.00 43 1019.6
20200713132910 76 291 4.0 11.0 0.00 0.00 0.00 44 1019.6
20200713132808 76 294 4.0 11.0 0.00 0.00 0.00 44 1019.6
20200713132701 76 306 5.0 11.0 0.00 0.00 0.00 43 1019.6
20200713132554 76 315 5.0 11.0 0.00 0.00 0.00 43 1019.7
20200713132450 76 293 5.0 11.0 0.00 0.00 0.00 41 1019.7
20200713132343 76 285 5.0 11.0 0.00 0.00 0.00 42 1019.7
20200713132240 76 286 5.0 11.0 0.00 0.00 0.00 42 1019.8
20200713132136 76 297 5.0 11.0 0.00 0.00 0.00 42 1019.8
20200713132030 76 338 4.0 14.0 0.00 0.00 0.00 42 1019.7
20200713131923 76 301 4.0 14.0 0.00 0.00 0.00 42 1019.7
20200713131820 76 295 4.0 14.0 0.00 0.00 0.00 43 1019.8
20200713131711 76 295 4.0 14.0 0.00 0.00 0.00 43 1019.7
20200713131608 76 280 4.0 14.0 0.00 0.00 0.00 42 1019.7
20200713131502 76 268 3.0 14.0 0.00 0.00 0.00 43 1019.7
20200713131357 76 257 3.0 14.0 0.00 0.00 0.00 44 1019.7
20200713131254 76 334 4.0 14.0 0.00 0.00 0.00 44 1019.8
20200713131147 76 262 4.0 14.0 0.00 0.00 0.00 43 1019.8
20200713131042 76 273 5.0 14.0 0.00 0.00 0.00 43 1019.8
20200713130936 76 271 5.0 14.0 0.00 0.00 0.00 43 1019.8
20200713130833 76 276 5.0 14.0 0.00 0.00 0.00 43 1019.7
20200713130726 76 284 6.0 14.0 0.00 0.00 0.00 43 1019.9
20200713130623 76 282 6.0 14.0 0.00 0.00 0.00 42 1019.8
20200713130518 76 266 6.0 14.0 0.00 0.00 0.00 43 1019.9
20200713130413 76 272 6.0 14.0 0.00 0.00 0.00 42 1019.9
20200713130307 76 262 6.0 14.0 0.00 0.00 0.00 43 1019.9
20200713130200 76 264 5.0 14.0 0.00 0.00 0.00 43 1019.9
20200713130056 76 284 5.0 13.0 0.00 0.00 0.00 43 1019.9
20200713125953 76 250 5.0 13.0 0.00 0.00 0.00 45 1019.9
20200713125848 76 259 4.0 13.0 0.00 0.00 0.00 45 1019.9
20200713125743 76 264 4.0 13.0 0.00 0.00 0.00 45 1019.9
20200713125638 76 307 4.0 13.0 0.00 0.00 0.00 45 1019.9
20200713125533 76 276 4.0 13.0 0.00 0.00 0.00 45 1020.0
20200713125431 76 301 4.0 13.0 0.00 0.00 0.00 44 1020.0
20200713125328 76 299 4.0 13.0 0.00 0.00 0.00 45 1020.0
20200713125223 75 334 4.0 12.0 0.00 0.00 0.00 46 1020.0
20200713125115 75 266 4.0 12.0 0.00 0.00 0.00 45 1020.1
20200713125011 75 301 4.0 12.0 0.00 0.00 0.00 44 1020.1
20200713124903 75 284 4.0 12.0 0.00 0.00 0.00 44 1020.2
20200713124755 75 318 4.0 12.0 0.00 0.00 0.00 43 1020.2
20200713124652 75 270 4.0 12.0 0.00 0.00 0.00 43 1020.2
20200713124550 76 272 4.0 12.0 0.00 0.00 0.00 43 1020.3
20200713124446 76 273 4.0 12.0 0.00 0.00 0.00 43 1020.3
20200713124341 76 278 4.0 12.0 0.00 0.00 0.00 44 1020.3
20200713124235 76 268 3.0 10.0 0.00 0.00 0.00 43 1020.3
20200713124131 76 297 3.0 14.0 0.00 0.00 0.00 44 1020.3
20200713124028 76 316 3.0 14.0 0.00 0.00 0.00 44 1020.3
20200713123924 76 279 3.0 14.0 0.00 0.00 0.00 43 1020.3
20200713123818 76 274 4.0 14.0 0.00 0.00 0.00 43 1020.3
20200713123713 76 274 4.0 14.0 0.00 0.00 0.00 43 1020.3
20200713123610 76 263 4.0 14.0 0.00 0.00 0.00 43 1020.4
20200713123505 76 305 4.0 14.0 0.00 0.00 0.00 43 1020.4
20200713123403 76 265 4.0 14.0 0.00 0.00 0.00 43 1020.4
20200713123256 76 234 5.0 14.0 0.00 0.00 0.00 44 1020.4
20200713123149 76 278 5.0 14.0 0.00 0.00 0.00 44 1020.4
20200713123042 76 266 6.0 14.0 0.00 0.00 0.00 44 1020.4
20200713122936 76 290 6.0 14.0 0.00 0.00 0.00 43 1020.5
20200713122832 76 260 6.0 14.0 0.00 0.00 0.00 42 1020.4
20200713122724 76 278 7.0 14.0 0.00 0.00 0.00 41 1020.5
20200713122620 76 284 7.0 14.0 0.00 0.00 0.00 41 1020.5
20200713122514 76 266 7.0 14.0 0.00 0.00 0.00 42 1020.4
20200713122409 76 257 7.0 14.0 0.00 0.00 0.00 41 1020.4
20200713122306 77 282 7.0 14.0 0.00 0.00 0.00 41 1020.5
20200713122204 77 268 5.0 14.0 0.00 0.00 0.00 41 1020.5
20200713122057 77 281 5.0 13.0 0.00 0.00 0.00 40 1020.5
20200713121950 77 276 4.0 13.0 0.00 0.00 0.00 39 1020.5
20200713121843 77 266 4.0 13.0 0.00 0.00 0.00 38 1020.6
20200713121741 77 257 4.0 13.0 0.00 0.00 0.00 38 1020.6
20200713121633 77 266 4.0 13.0 0.00 0.00 0.00 38 1020.6
20200713121530 77 257 4.0 13.0 0.00 0.00 0.00 39 1020.7
20200713121425 77 316 3.0 13.0 0.00 0.00 0.00 38 1020.6
20200713121317 77 270 3.0 13.0 0.00 0.00 0.00 37 1020.6
20200713121214 77 282 4.0 13.0 0.00 0.00 0.00 36 1020.6
20200713121108 77 284 4.0 13.0 0.00 0.00 0.00 35 1020.6
20200713121005 77 210 4.0 13.0 0.00 0.00 0.00 36 1020.7
20200713120901 77 241 4.0 14.0 0.00 0.00 0.00 35 1020.7
20200713120757 77 272 4.0 14.0 0.00 0.00 0.00 35 1020.7
20200713120655 77 261 3.0 14.0 0.00 0.00 0.00 35 1020.7
20200713120552 77 288 3.0 14.0 0.00 0.00 0.00 35 1020.7
20200713120450 77 266 3.0 14.0 0.00 0.00 0.00 35 1020.6
20200713120348 77 268 3.0 14.0 0.00 0.00 0.00 35 1020.7
20200713120239 77 261 3.0 14.0 0.00 0.00 0.00 35 1020.7
20200713120132 77 279 4.0 14.0 0.00 0.00 0.00 35 1020.7
20200713120025 77 280 4.0 14.0 0.00 0.00 0.00 35 1020.8
20200713115921 77 280 4.0 14.0 0.00 0.00 0.00 34 1020.7
20200713115816 77 265 4.0 14.0 0.00 0.00 0.00 33 1020.7
20200713115710 77 230 4.0 14.0 0.00 0.00 0.00 34 1020.7
20200713115605 77 281 5.0 14.0 0.00 0.00 0.00 34 1020.8
20200713115457 77 269 6.0 14.0 0.00 0.00 0.00 33 1020.8
20200713115355 77 220 6.0 14.0 0.00 0.00 0.00 32 1020.8
20200713115250 77 286 6.0 14.0 0.00 0.00 0.00 33 1020.8
20200713115143 77 262 6.0 14.0 0.00 0.00 0.00 33 1020.8
20200713115040 77 295 6.0 14.0 0.00 0.00 0.00 33 1020.8
20200713114936 77 305 6.0 14.0 0.00 0.00 0.00 32 1020.8
20200713114833 77 281 5.0 13.0 0.00 0.00 0.00 32 1020.8
20200713114730 77 268 5.0 13.0 0.00 0.00 0.00 32 1020.8
20200713114623 77 296 5.0 13.0 0.00 0.00 0.00 32 1020.8
20200713114519 77 272 5.0 13.0 0.00 0.00 0.00 31 1020.8
20200713114416 77 270 5.0 13.0 0.00 0.00 0.00 31 1020.8
20200713114311 77 274 5.0 14.0 0.00 0.00 0.00 31 1020.8
20200713114206 77 272 4.0 14.0 0.00 0.00 0.00 33 1020.9
20200713114101 77 283 4.0 14.0 0.00 0.00 0.00 33 1020.9
20200713113957 77 279 4.0 14.0 0.00 0.00 0.00 33 1020.8
20200713113851 77 316 4.0 14.0 0.00 0.00 0.00 32 1020.9
20200713113749 77 286 4.0 14.0 0.00 0.00 0.00 31 1020.9
20200713113642 77 257 4.0 14.0 0.00 0.00 0.00 31 1020.9
20200713113536 77 283 5.0 14.0 0.00 0.00 0.00 31 1021.0
20200713113431 76 307 5.0 14.0 0.00 0.00 0.00 32 1021.0
20200713113324 76 269 5.0 14.0 0.00 0.00 0.00 32 1021.0
20200713113217 76 286 5.0 14.0 0.00 0.00 0.00 32 1021.0
20200713113110 76 274 6.0 14.0 0.00 0.00 0.00 32 1021.0
20200713113003 76 283 6.0 14.0 0.00 0.00 0.00 31 1021.0
20200713112900 76 283 6.0 14.0 0.00 0.00 0.00 33 1021.0
20200713112754 76 278 6.0 14.0 0.00 0.00 0.00 30 1021.0
20200713112646 76 273 6.0 14.0 0.00 0.00 0.00 30 1021.1
20200713112542 76 262 6.0 14.0 0.00 0.00 0.00 32 1021.1
20200713112436 76 267 6.0 14.0 0.00 0.00 0.00 31 1021.1
20200713112329 76 265 6.0 13.0 0.00 0.00 0.00 30 1021.1
20200713112220 76 257 6.0 13.0 0.00 0.00 0.00 31 1021.1
20200713112116 76 272 6.0 12.0 0.00 0.00 0.00 33 1021.1
20200713112011 76 255 5.0 12.0 0.00 0.00 0.00 35 1021.1
20200713111908 76 295 5.0 12.0 0.00 0.00 0.00 33 1021.1
20200713111805 76 262 5.0 12.0 0.00 0.00 0.00 32 1021.1
20200713111702 76 290 4.0 12.0 0.00 0.00 0.00 31 1021.2
20200713111558 76 218 4.0 12.0 0.00 0.00 0.00 33 1021.2
20200713111455 76 263 4.0 12.0 0.00 0.00 0.00 32 1021.1
20200713111347 76 257 4.0 11.0 0.00 0.00 0.00 32 1021.1
20200713111244 76 230 3.0 11.0 0.00 0.00 0.00 34 1021.1
20200713111137 76 268 3.0 11.0 0.00 0.00 0.00 35 1021.2
20200713111029 76 291 4.0 12.0 0.00 0.00 0.00 35 1021.1
20200713110927 76 272 4.0 12.0 0.00 0.00 0.00 35 1021.1
20200713110822 76 210 4.0 12.0 0.00 0.00 0.00 35 1021.2
20200713110717 76 209 5.0 12.0 0.00 0.00 0.00 34 1021.2
20200713110615 76 228 5.0 12.0 0.00 0.00 0.00 36 1021.2
20200713110403 76 286 4.0 12.0 0.00 0.00 0.00 36 1021.3
20200713110259 76 281 4.0 12.0 0.00 0.00 0.00 34 1021.3
20200713110156 76 264 4.0 12.0 0.00 0.00 0.00 36 1021.3
20200713110049 75 282 4.0 12.0 0.00 0.00 0.00 37 1021.3
20200713105945 75 275 4.0 12.0 0.00 0.00 0.00 36 1021.3
20200713105841 75 281 4.0 12.0 0.00 0.00 0.00 39 1021.3
20200713105734 75 268 4.0 12.0 0.00 0.00 0.00 39 1021.3
20200713105629 75 293 4.0 12.0 0.00 0.00 0.00 38 1021.3
20200713105526 75 283 4.0 12.0 0.00 0.00 0.00 38 1021.3
20200713105421 75 274 4.0 12.0 0.00 0.00 0.00 37 1021.3
20200713105315 75 260 4.0 12.0 0.00 0.00 0.00 37 1021.3
20200713105213 75 293 4.0 12.0 0.00 0.00 0.00 37 1021.3
20200713105108 75 311 4.0 12.0 0.00 0.00 0.00 37 1021.3
20200713105001 75 294 4.0 12.0 0.00 0.00 0.00 37 1021.4
20200713104858 75 271 4.0 12.0 0.00 0.00 0.00 38 1021.4
20200713104752 75 268 4.0 12.0 0.00 0.00 0.00 38 1021.4
20200713104646 74 274 4.0 12.0 0.00 0.00 0.00 36 1021.4
20200713104544 74 275 4.0 12.0 0.00 0.00 0.00 37 1021.5
20200713104437 74 286 4.0 12.0 0.00 0.00 0.00 39 1021.4
20200713104335 74 268 4.0 12.0 0.00 0.00 0.00 39 1021.5
20200713104227 74 268 4.0 12.0 0.00 0.00 0.00 37 1021.5
20200713104122 74 282 3.0 12.0 0.00 0.00 0.00 39 1021.5
20200713104020 74 273 3.0 11.0 0.00 0.00 0.00 37 1021.6
20200713103917 74 263 4.0 11.0 0.00 0.00 0.00 37 1021.6
20200713103814 74 222 4.0 11.0 0.00 0.00 0.00 37 1021.6
20200713103708 74 180 4.0 11.0 0.00 0.00 0.00 36 1021.6
20200713103602 74 228 4.0 11.0 0.00 0.00 0.00 36 1021.6
20200713103455 74 189 5.0 11.0 0.00 0.00 0.00 36 1021.7
20200713103349 74 266 5.0 11.0 0.00 0.00 0.00 37 1021.6
20200713103247 74 280 5.0 11.0 0.00 0.00 0.00 37 1021.7
20200713103144 74 282 5.0 11.0 0.00 0.00 0.00 38 1021.7
20200713103039 74 247 5.0 11.0 0.00 0.00 0.00 38 1021.7
20200713102934 74 270 6.0 13.0 0.00 0.00 0.00 40 1021.7
20200713102829 74 293 6.0 13.0 0.00 0.00 0.00 38 1021.7
20200713102724 74 291 6.0 13.0 0.00 0.00 0.00 38 1021.7
20200713102617 74 273 5.0 13.0 0.00 0.00 0.00 38 1021.7
20200713102513 74 280 5.0 13.0 0.00 0.00 0.00 39 1021.7
20200713102408 74 274 4.0 13.0 0.00 0.00 0.00 38 1021.7
20200713102305 74 264 4.0 13.0 0.00 0.00 0.00 38 1021.8
20200713102159 74 270 4.0 13.0 0.00 0.00 0.00 40 1021.8
20200713102055 74 257 4.0 13.0 0.00 0.00 0.00 41 1021.8
20200713101950 74 282 3.0 13.0 0.00 0.00 0.00 41 1021.8
20200713101842 74 282 3.0 13.0 0.00 0.00 0.00 41 1021.8
20200713101736 74 291 3.0 13.0 0.00 0.00 0.00 41 1021.8
20200713101631 73 318 3.0 13.0 0.00 0.00 0.00 40 1021.8
20200713101524 73 330 3.0 13.0 0.00 0.00 0.00 39 1021.8
20200713101419 73 277 2.0 13.0 0.00 0.00 0.00 39 1021.8
20200713101313 73 270 3.0 13.0 0.00 0.00 0.00 38 1021.8
20200713101206 73 255 2.0 13.0 0.00 0.00 0.00 39 1021.9
20200713101104 73 235 2.0 13.0 0.00 0.00 0.00 41 1021.9
20200713100959 73 284 2.0 12.0 0.00 0.00 0.00 43 1021.9
20200713100852 73 277 3.0 12.0 0.00 0.00 0.00 42 1021.9
20200713100745 73 278 3.0 12.0 0.00 0.00 0.00 43 1021.9
20200713100641 73 269 4.0 12.0 0.00 0.00 0.00 45 1021.9
20200713100535 73 301 4.0 12.0 0.00 0.00 0.00 42 1022.0
20200713100432 73 274 4.0 12.0 0.00 0.00 0.00 43 1021.9
20200713100330 72 259 4.0 12.0 0.00 0.00 0.00 43 1021.9
20200713100223 72 320 4.0 12.0 0.00 0.00 0.00 42 1021.9
20200713100119 72 329 5.0 12.0 0.00 0.00 0.00 42 1021.9
20200713100014 72 300 5.0 12.0 0.00 0.00 0.00 40 1021.9
20200713095907 72 281 5.0 12.0 0.00 0.00 0.00 39 1021.9
20200713095804 72 255 5.0 12.0 0.00 0.00 0.00 41 1022.0
20200713095700 72 261 4.0 12.0 0.00 0.00 0.00 42 1022.0
20200713095559 72 333 4.0 10.0 0.00 0.00 0.00 42 1021.9
20200713095451 72 276 4.0 10.0 0.00 0.00 0.00 43 1021.9
20200713095347 71 292 3.0 10.0 0.00 0.00 0.00 44 1022.0
20200713095242 71 282 3.0 10.0 0.00 0.00 0.00 43 1022.1
20200713095139 71 260 3.0 10.0 0.00 0.00 0.00 44 1022.0
20200713095033 71 274 2.0 10.0 0.00 0.00 0.00 43 1022.0
20200713094926 71 340 2.0 10.0 0.00 0.00 0.00 46 1022.1
20200713094819 71 284 2.0 8.0 0.00 0.00 0.00 46 1022.1
20200713094715 70 282 1.0 8.0 0.00 0.00 0.00 42 1022.1
20200713094608 70 191 1.0 8.0 0.00 0.00 0.00 43 1022.1
20200713094501 70 284 1.0 8.0 0.00 0.00 0.00 44 1022.2
20200713094354 70 282 1.0 8.0 0.00 0.00 0.00 44 1022.2
20200713094251 70 253 1.0 8.0 0.00 0.00 0.00 47 1022.2
20200713094146 70 195 1.0 8.0 0.00 0.00 0.00 50 1022.2
20200713094043 70 198 1.0 8.0 0.00 0.00 0.00 49 1022.2
20200713093940 70 247 1.0 8.0 0.00 0.00 0.00 49 1022.2
20200713093834 70 207 1.0 11.0 0.00 0.00 0.00 51 1022.3
20200713093731 70 214 1.0 11.0 0.00 0.00 0.00 50 1022.2
20200713093626 70 215 0.0 11.0 0.00 0.00 0.00 50 1022.2
20200713093520 70 224 0.0 11.0 0.00 0.00 0.00 51 1022.2
20200713093414 70 235 0.0 11.0 0.00 0.00 0.00 52 1022.3
20200713093311 69 259 0.0 11.0 0.00 0.00 0.00 51 1022.2
20200713093202 69 262 0.0 11.0 0.00 0.00 0.00 51 1022.3
20200713093059 69 270 0.0 11.0 0.00 0.00 0.00 51 1022.3
20200713092953 69 270 1.0 11.0 0.00 0.00 0.00 51 1022.3
20200713092848 69 270 1.0 11.0 0.00 0.00 0.00 52 1022.3
20200713092743 69 266 2.0 11.0 0.00 0.00 0.00 50 1022.3
20200713092635 69 266 2.0 11.0 0.00 0.00 0.00 50 1022.3
20200713092533 69 266 2.0 11.0 0.00 0.00 0.00 51 1022.3
20200713092428 69 224 2.0 11.0 0.00 0.00 0.00 51 1022.3
20200713092324 69 223 2.0 11.0 0.00 0.00 0.00 51 1022.3
20200713092015 69 264 2.0 11.0 0.00 0.00 0.00 51 1022.2
20200713091703 69 275 0.0 5.0 0.00 0.00 0.00 53 1022.3
20200713091555 69 270 0.0 5.0 0.00 0.00 0.00 53 1022.3
20200713091453 69 233 0.0 5.0 0.00 0.00 0.00 53 1022.3
20200713091351 69 249 0.0 5.0 0.00 0.00 0.00 53 1022.3
20200713091245 68 251 1.0 2.0 0.00 0.00 0.00 54 1022.3
20200713091142 68 229 1.0 0.0 0.00 0.00 0.00 55 1022.4
20200713091038 68 239 1.0 0.0 0.00 0.00 0.00 55 1022.3
20200713090931 68 241 2.0 9.0 0.00 0.00 0.00 55 1022.3
20200713090826 68 200 2.0 9.0 0.00 0.00 0.00 54 1022.4
20200713090720 68 197 2.0 9.0 0.00 0.00 0.00 54 1022.4
20200713090617 68 201 2.0 9.0 0.00 0.00 0.00 55 1022.3
20200713090513 68 294 2.0 9.0 0.00 0.00 0.00 55 1022.4
20200713090407 68 295 2.0 9.0 0.00 0.00 0.00 53 1022.4
20200713090302 68 267 1.0 9.0 0.00 0.00 0.00 54 1022.4
20200713090158 68 263 1.0 9.0 0.00 0.00 0.00 54 1022.4
20200713090054 68 259 1.0 9.0 0.00 0.00 0.00 54 1022.4
20200713085951 68 255 0.0 9.0 0.00 0.00 0.00 57 1022.4
20200713085848 67 277 0.0 7.0 0.00 0.00 0.00 56 1022.4
20200713085745 67 266 0.0 7.0 0.00 0.00 0.00 57 1022.5
20200713085640 67 277 0.0 0.0 0.00 0.00 0.00 58 1022.5
20200713085535 67 201 0.0 0.0 0.00 0.00 0.00 59 1022.4
20200713085431 67 201 0.0 0.0 0.00 0.00 0.00 59 1022.4
20200713085326 67 195 0.0 4.0 0.00 0.00 0.00 59 1022.4
20200713085218 67 193 1.0 4.0 0.00 0.00 0.00 58 1022.5
20200713085110 67 189 1.0 3.0 0.00 0.00 0.00 58 1022.5
20200713085003 67 200 1.0 3.0 0.00 0.00 0.00 59 1022.5
20200713084857 67 199 1.0 3.0 0.00 0.00 0.00 59 1022.5
20200713084753 67 252 1.0 3.0 0.00 0.00 0.00 59 1022.5
20200713084648 67 252 1.0 3.0 0.00 0.00 0.00 59 1022.5
20200713084542 67 253 1.0 3.0 0.00 0.00 0.00 59 1022.5
20200713084438 67 252 0.0 3.0 0.00 0.00 0.00 59 1022.5
20200713084336 67 252 0.0 3.0 0.00 0.00 0.00 60 1022.5
20200713084231 67 252 0.0 3.0 0.00 0.00 0.00 60 1022.5
20200713084127 67 251 0.0 3.0 0.00 0.00 0.00 59 1022.6
20200713084022 67 251 0.0 3.0 0.00 0.00 0.00 59 1022.5
20200713083916 67 245 0.0 3.0 0.00 0.00 0.00 59 1022.6
20200713083810 67 195 0.0 3.0 0.00 0.00 0.00 59 1022.6
20200713083702 67 191 0.0 2.0 0.00 0.00 0.00 59 1022.6
20200713083555 67 272 0.0 0.0 0.00 0.00 0.00 58 1022.6
20200713083453 66 273 1.0 0.0 0.00 0.00 0.00 58 1022.6
20200713083350 66 273 1.0 0.0 0.00 0.00 0.00 58 1022.7
20200713083246 66 273 2.0 0.0 0.00 0.00 0.00 58 1022.7
20200713083138 66 272 2.0 7.0 0.00 0.00 0.00 58 1022.6
20200713083034 66 272 2.0 7.0 0.00 0.00 0.00 60 1022.6
20200713082929 66 276 2.0 7.0 0.00 0.00 0.00 60 1022.6
20200713082822 66 272 2.0 7.0 0.00 0.00 0.00 60 1022.6
20200713082721 66 274 2.0 7.0 0.00 0.00 0.00 59 1022.6
20200713082615 66 264 2.0 7.0 0.00 0.00 0.00 59 1022.7
20200713082510 66 306 2.0 7.0 0.00 0.00 0.00 60 1022.7
20200713082403 66 305 2.0 7.0 0.00 0.00 0.00 60 1022.7
20200713082257 66 275 2.0 7.0 0.00 0.00 0.00 61 1022.7
20200713082155 66 269 2.0 7.0 0.00 0.00 0.00 61 1022.8
20200713082050 66 284 2.0 7.0 0.00 0.00 0.00 61 1022.8
20200713081945 66 282 2.0 7.0 0.00 0.00 0.00 60 1022.7
20200713081838 66 271 2.0 7.0 0.00 0.00 0.00 60 1022.7
20200713081733 66 270 2.0 7.0 0.00 0.00 0.00 60 1022.7
20200713081629 65 284 2.0 7.0 0.00 0.00 0.00 61 1022.7
20200713081523 65 275 2.0 7.0 0.00 0.00 0.00 61 1022.7
20200713081416 65 276 2.0 7.0 0.00 0.00 0.00 62 1022.7
20200713081312 65 289 2.0 7.0 0.00 0.00 0.00 62 1022.7
20200713081207 65 283 2.0 6.0 0.00 0.00 0.00 62 1022.8
20200713081104 65 267 1.0 6.0 0.00 0.00 0.00 62 1022.8
20200713081001 65 267 1.0 6.0 0.00 0.00 0.00 62 1022.8
20200713080857 65 267 1.0 6.0 0.00 0.00 0.00 63 1022.8
20200713080752 65 282 1.0 6.0 0.00 0.00 0.00 63 1022.7
20200713080649 65 273 1.0 6.0 0.00 0.00 0.00 63 1022.7
20200713080543 65 273 1.0 6.0 0.00 0.00 0.00 63 1022.7
20200713080437 65 274 1.0 6.0 0.00 0.00 0.00 64 1022.7
20200713080330 65 283 1.0 5.0 0.00 0.00 0.00 63 1022.7
20200713080225 65 284 1.0 5.0 0.00 0.00 0.00 64 1022.7
20200713080121 65 284 1.0 7.0 0.00 0.00 0.00 64 1022.7
20200713080016 64 289 1.0 7.0 0.00 0.00 0.00 63 1022.8
20200713075912 64 275 1.0 7.0 0.00 0.00 0.00 63 1022.8
20200713075806 64 275 1.0 7.0 0.00 0.00 0.00 64 1022.8
20200713075701 64 275 1.0 7.0 0.00 0.00 0.00 64 1022.8
20200713075559 64 276 2.0 7.0 0.00 0.00 0.00 64 1022.8
20200713075452 64 277 2.0 7.0 0.00 0.00 0.00 64 1022.8
20200713075345 64 276 2.0 7.0 0.00 0.00 0.00 64 1022.8
20200713075241 64 280 1.0 7.0 0.00 0.00 0.00 64 1022.8
20200713075138 64 282 1.0 7.0 0.00 0.00 0.00 64 1022.8
20200713075033 64 276 1.0 7.0 0.00 0.00 0.00 64 1022.8
20200713074930 64 276 1.0 7.0 0.00 0.00 0.00 64 1022.8
20200713074822 64 276 1.0 7.0 0.00 0.00 0.00 64 1022.8
20200713074718 64 278 0.0 7.0 0.00 0.00 0.00 63 1022.8
20200713074612 64 266 0.0 7.0 0.00 0.00 0.00 64 1022.8
20200713074506 64 261 0.0 5.0 0.00 0.00 0.00 64 1022.8
20200713074359 64 258 0.0 5.0 0.00 0.00 0.00 64 1022.8
20200713074251 64 270 0.0 1.0 0.00 0.00 0.00 64 1022.8
20200713074146 64 270 0.0 1.0 0.00 0.00 0.00 65 1022.8
20200713074041 64 270 0.0 7.0 0.00 0.00 0.00 65 1022.8
20200713073935 64 270 1.0 7.0 0.00 0.00 0.00 65 1022.9
20200713073841 64 264 1.0 7.0 0.00 0.00 0.00 65 1022.9
20200713073728 64 264 1.0 7.0 0.00 0.00 0.00 65 1022.9
20200713073625 64 262 0.0 7.0 0.00 0.00 0.00 65 1022.9
20200713073518 64 266 0.0 6.0 0.00 0.00 0.00 66 1022.9
20200713073412 64 278 0.0 6.0 0.00 0.00 0.00 67 1022.9
20200713073308 63 287 0.0 0.0 0.00 0.00 0.00 67 1023.0
20200713073205 63 287 0.0 2.0 0.00 0.00 0.00 68 1022.9
20200713073058 63 288 0.0 2.0 0.00 0.00 0.00 68 1023.0
20200713072951 63 286 0.0 2.0 0.00 0.00 0.00 69 1022.9
20200713072845 63 279 0.0 1.0 0.00 0.00 0.00 68 1023.0
20200713072739 63 279 0.0 0.0 0.00 0.00 0.00 68 1022.9
20200713072632 63 279 1.0 5.0 0.00 0.00 0.00 68 1023.0
20200713072526 63 279 1.0 5.0 0.00 0.00 0.00 69 1023.0
20200713072423 63 283 1.0 5.0 0.00 0.00 0.00 68 1023.0
20200713072319 63 282 1.0 5.0 0.00 0.00 0.00 68 1023.0
20200713072215 63 283 1.0 9.0 0.00 0.00 0.00 68 1023.0
20200713072111 63 283 2.0 9.0 0.00 0.00 0.00 68 1023.0
20200713072006 63 283 2.0 6.0 0.00 0.00 0.00 69 1023.0
20200713071859 63 283 1.0 6.0 0.00 0.00 0.00 68 1023.0
20200713071755 63 283 1.0 6.0 0.00 0.00 0.00 68 1023.1
20200713071650 63 283 1.0 6.0 0.00 0.00 0.00 68 1023.0
20200713071547 62 266 0.0 6.0 0.00 0.00 0.00 68 1023.0
20200713071441 62 268 0.0 6.0 0.00 0.00 0.00 68 1023.0
20200713071338 62 268 0.0 6.0 0.00 0.00 0.00 69 1023.0
20200713071231 62 271 0.0 6.0 0.00 0.00 0.00 69 1023.0
20200713071128 62 275 1.0 6.0 0.00 0.00 0.00 70 1023.1
20200713071027 62 282 1.0 3.0 0.00 0.00 0.00 70 1023.1
20200713070925 62 284 1.0 0.0 0.00 0.00 0.00 70 1023.1
20200713070821 62 272 2.0 0.0 0.00 0.00 0.00 70 1023.1
20200713070716 62 272 2.0 9.0 0.00 0.00 0.00 70 1023.1
20200713070608 62 272 2.0 9.0 0.00 0.00 0.00 70 1023.1
20200713070502 62 278 3.0 9.0 0.00 0.00 0.00 70 1023.1
20200713070359 62 277 3.0 9.0 0.00 0.00 0.00 70 1023.1
20200713070256 61 268 3.0 9.0 0.00 0.00 0.00 71 1023.1
20200713070154 61 276 3.0 9.0 0.00 0.00 0.00 71 1023.1
20200713070051 61 289 2.0 9.0 0.00 0.00 0.00 71 1023.1
20200713065948 61 270 2.0 9.0 0.00 0.00 0.00 71 1023.1
20200713065843 61 272 2.0 8.0 0.00 0.00 0.00 71 1023.1
20200713065739 61 276 2.0 8.0 0.00 0.00 0.00 72 1023.1
20200713065634 61 277 2.0 8.0 0.00 0.00 0.00 72 1023.1
20200713065526 61 276 1.0 8.0 0.00 0.00 0.00 72 1023.1
20200713065420 61 274 1.0 8.0 0.00 0.00 0.00 72 1023.1
20200713065312 60 280 1.0 8.0 0.00 0.00 0.00 72 1023.1
20200713065205 60 265 1.0 8.0 0.00 0.00 0.00 72 1023.0
20200713065101 60 265 0.0 7.0 0.00 0.00 0.00 73 1023.1
20200713064956 60 273 0.0 7.0 0.00 0.00 0.00 73 1023.0
20200713064850 60 262 0.0 7.0 0.00 0.00 0.00 74 1023.0
20200713064742 60 271 0.0 0.0 0.00 0.00 0.00 74 1023.0
20200713064638 60 271 0.0 0.0 0.00 0.00 0.00 75 1023.1
20200713064533 60 271 0.0 5.0 0.00 0.00 0.00 75 1023.1
20200713064431 59 270 0.0 5.0 0.00 0.00 0.00 75 1023.1
20200713064323 59 270 0.0 5.0 0.00 0.00 0.00 75 1023.1
20200713064220 59 268 0.0 5.0 0.00 0.00 0.00 75 1023.0
20200713064119 59 270 0.0 4.0 0.00 0.00 0.00 75 1023.1
20200713064012 59 264 0.0 4.0 0.00 0.00 0.00 75 1023.1
20200713063907 59 272 0.0 2.0 0.00 0.00 0.00 75 1023.1
20200713063802 59 271 0.0 0.0 0.00 0.00 0.00 75 1023.0
20200713063658 59 271 0.0 0.0 0.00 0.00 0.00 75 1023.0
20200713063551 59 271 0.0 0.0 0.00 0.00 0.00 75 1023.1
20200713063447 59 271 0.0 0.0 0.00 0.00 0.00 75 1023.1
20200713063340 59 271 0.0 0.0 0.00 0.00 0.00 75 1023.1
20200713063238 59 271 0.0 0.0 0.00 0.00 0.00 75 1023.1
20200713063132 59 271 0.0 0.0 0.00 0.00 0.00 75 1023.1
20200713063030 59 271 0.0 0.0 0.00 0.00 0.00 75 1023.1
20200713062928 59 271 0.0 0.0 0.00 0.00 0.00 76 1023.0
20200713062824 59 271 0.0 0.0 0.00 0.00 0.00 76 1023.0
20200713062721 59 271 0.0 0.0 0.00 0.00 0.00 76 1023.0
20200713062617 59 271 0.0 0.0 0.00 0.00 0.00 75 1023.0
20200713062511 59 271 0.0 0.0 0.00 0.00 0.00 75 1023.0
20200713062407 58 271 0.0 0.0 0.00 0.00 0.00 75 1023.0
20200713062301 58 271 0.0 0.0 0.00 0.00 0.00 75 1023.0
20200713062158 58 271 0.0 0.0 0.00 0.00 0.00 75 1023.0
20200713062051 58 271 0.0 0.0 0.00 0.00 0.00 75 1023.0
20200713061948 58 271 0.0 0.0 0.00 0.00 0.00 75 1023.0
20200713061845 58 271 0.0 0.0 0.00 0.00 0.00 75 1023.0
20200713061740 58 271 0.0 0.0 0.00 0.00 0.00 75 1023.0
20200713061636 58 271 0.0 0.0 0.00 0.00 0.00 75 1023.0
20200713061533 58 271 0.0 0.0 0.00 0.00 0.00 75 1023.0
20200713061428 58 271 0.0 3.0 0.00 0.00 0.00 75 1023.0
20200713061321 58 271 0.0 3.0 0.00 0.00 0.00 75 1023.0
20200713061219 58 271 0.0 3.0 0.00 0.00 0.00 75 1023.0
20200713061113 58 271 0.0 0.0 0.00 0.00 0.00 75 1023.0
20200713061009 58 271 1.0 0.0 0.00 0.00 0.00 75 1023.0
20200713060904 58 271 1.0 0.0 0.00 0.00 0.00 75 1023.1
20200713060759 58 271 2.0 5.0 0.00 0.00 0.00 75 1023.0
20200713060656 58 271 1.0 5.0 0.00 0.00 0.00 75 1023.1
20200713060552 58 271 2.0 5.0 0.00 0.00 0.00 75 1023.1
20200713060446 58 271 2.0 5.0 0.00 0.00 0.00 75 1023.0
20200713060341 58 271 2.0 5.0 0.00 0.00 0.00 75 1023.0
20200713060238 58 270 2.0 5.0 0.00 0.00 0.00 75 1023.0
20200713060133 58 270 2.0 6.0 0.00 0.00 0.00 75 1023.1
20200713060027 58 271 1.0 6.0 0.00 0.00 0.00 75 1023.1
20200713055919 58 272 1.0 6.0 0.00 0.00 0.00 75 1023.0
20200713055817 58 270 1.0 6.0 0.00 0.00 0.00 75 1023.0
20200713055710 58 275 1.0 6.0 0.00 0.00 0.00 75 1023.0
20200713055603 58 275 2.0 6.0 0.00 0.00 0.00 75 1023.0
20200713055457 58 275 2.0 6.0 0.00 0.00 0.00 75 1023.0
20200713055352 58 276 2.0 6.0 0.00 0.00 0.00 75 1023.0
20200713055245 58 276 2.0 6.0 0.00 0.00 0.00 75 1023.1
20200713055140 58 276 2.0 6.0 0.00 0.00 0.00 75 1023.1
20200713055035 58 276 2.0 6.0 0.00 0.00 0.00 75 1023.1
20200713054929 58 278 2.0 6.0 0.00 0.00 0.00 75 1023.0
20200713054825 58 264 2.0 6.0 0.00 0.00 0.00 75 1023.0
20200713054718 58 265 2.0 6.0 0.00 0.00 0.00 75 1023.0
20200713054614 58 266 2.0 6.0 0.00 0.00 0.00 75 1022.9
20200713054511 58 269 2.0 6.0 0.00 0.00 0.00 75 1023.0
20200713054408 58 269 2.0 6.0 0.00 0.00 0.00 75 1022.9
20200713054302 58 269 2.0 6.0 0.00 0.00 0.00 75 1023.0
20200713054156 58 270 1.0 6.0 0.00 0.00 0.00 75 1023.0
20200713054053 58 268 1.0 6.0 0.00 0.00 0.00 75 1023.0
20200713053949 58 268 2.0 6.0 0.00 0.00 0.00 75 1023.0
20200713053845 58 268 1.0 6.0 0.00 0.00 0.00 75 1023.0
20200713053740 58 270 2.0 6.0 0.00 0.00 0.00 75 1023.0
20200713053634 58 270 2.0 6.0 0.00 0.00 0.00 75 1023.1
20200713053532 58 270 2.0 6.0 0.00 0.00 0.00 75 1023.0
20200713053429 57 270 2.0 6.0 0.00 0.00 0.00 75 1023.0
20200713053323 57 270 2.0 6.0 0.00 0.00 0.00 75 1023.0
20200713053222 57 268 2.0 6.0 0.00 0.00 0.00 75 1023.0
20200713053114 57 266 1.0 6.0 0.00 0.00 0.00 75 1023.0
20200713053006 57 266 1.0 6.0 0.00 0.00 0.00 75 1022.9
20200713052903 57 272 1.0 6.0 0.00 0.00 0.00 75 1023.0
20200713052756 57 272 1.0 6.0 0.00 0.00 0.00 76 1023.0
20200713052653 57 272 0.0 6.0 0.00 0.00 0.00 76 1023.0
20200713052551 57 274 0.0 5.0 0.00 0.00 0.00 76 1023.0
20200713052448 57 274 0.0 5.0 0.00 0.00 0.00 76 1023.0
20200713052340 57 276 0.0 5.0 0.00 0.00 0.00 76 1023.0
20200713052235 57 272 0.0 0.0 0.00 0.00 0.00 76 1023.0
20200713052128 57 272 0.0 0.0 0.00 0.00 0.00 76 1023.0
20200713052024 57 272 0.0 0.0 0.00 0.00 0.00 76 1023.0
20200713051917 57 272 0.0 0.0 0.00 0.00 0.00 76 1023.0
20200713051813 57 270 0.0 3.0 0.00 0.00 0.00 76 1023.0
20200713051710 57 270 0.0 3.0 0.00 0.00 0.00 76 1022.9
20200713051607 57 270 0.0 3.0 0.00 0.00 0.00 76 1022.9
20200713051504 57 270 0.0 0.0 0.00 0.00 0.00 76 1022.9
20200713051359 57 270 0.0 0.0 0.00 0.00 0.00 76 1022.9
20200713051254 57 270 0.0 5.0 0.00 0.00 0.00 76 1022.9
20200713051148 57 270 0.0 5.0 0.00 0.00 0.00 76 1023.0
20200713051040 57 270 0.0 5.0 0.00 0.00 0.00 76 1023.0
20200713050935 57 274 0.0 0.0 0.00 0.00 0.00 76 1023.0
20200713050828 57 274 0.0 0.0 0.00 0.00 0.00 76 1023.0
20200713050724 57 274 0.0 1.0 0.00 0.00 0.00 76 1023.0
20200713050619 57 274 0.0 1.0 0.00 0.00 0.00 76 1022.9
20200713050512 57 274 0.0 3.0 0.00 0.00 0.00 76 1023.0
20200713050404 57 274 0.0 3.0 0.00 0.00 0.00 76 1023.0
20200713050300 57 274 0.0 3.0 0.00 0.00 0.00 76 1023.0
20200713050157 57 274 0.0 0.0 0.00 0.00 0.00 76 1023.0
20200713050052 57 274 0.0 0.0 0.00 0.00 0.00 76 1023.0
20200713045944 57 274 1.0 0.0 0.00 0.00 0.00 76 1023.0
20200713045837 57 274 1.0 5.0 0.00 0.00 0.00 76 1023.0
20200713045733 57 274 1.0 5.0 0.00 0.00 0.00 76 1023.0
20200713045630 57 274 1.0 5.0 0.00 0.00 0.00 76 1023.0
20200713045527 57 274 1.0 5.0 0.00 0.00 0.00 76 1023.1
20200713045420 57 274 1.0 5.0 0.00 0.00 0.00 76 1023.0
20200713045316 56 274 1.0 5.0 0.00 0.00 0.00 76 1023.0
20200713045211 56 274 1.0 5.0 0.00 0.00 0.00 76 1023.0
20200713045103 56 274 1.0 5.0 0.00 0.00 0.00 76 1023.0
20200713044957 56 274 1.0 5.0 0.00 0.00 0.00 76 1023.1
20200713044854 56 274 1.0 5.0 0.00 0.00 0.00 76 1023.0
20200713044752 56 274 1.0 5.0 0.00 0.00 0.00 76 1023.0
20200713044650 56 274 1.0 5.0 0.00 0.00 0.00 76 1023.0
20200713044546 56 274 0.0 5.0 0.00 0.00 0.00 76 1023.0
20200713044440 56 274 0.0 5.0 0.00 0.00 0.00 76 1023.0
20200713044335 56 274 0.0 5.0 0.00 0.00 0.00 76 1023.0
20200713044229 56 274 0.0 5.0 0.00 0.00 0.00 76 1023.0
20200713044125 56 272 0.0 3.0 0.00 0.00 0.00 76 1023.1
20200713044018 56 272 0.0 3.0 0.00 0.00 0.00 76 1023.0
20200713043914 56 272 0.0 3.0 0.00 0.00 0.00 76 1023.0
20200713043812 56 272 0.0 3.0 0.00 0.00 0.00 76 1023.1
20200713043707 56 272 0.0 3.0 0.00 0.00 0.00 76 1023.1
20200713043602 56 270 0.0 1.0 0.00 0.00 0.00 76 1023.1
20200713043456 56 270 0.0 1.0 0.00 0.00 0.00 76 1023.0
20200713043349 56 270 0.0 0.0 0.00 0.00 0.00 76 1023.1
20200713043247 56 270 0.0 0.0 0.00 0.00 0.00 76 1023.1
20200713043144 56 270 0.0 0.0 0.00 0.00 0.00 76 1023.1
20200713043039 56 270 0.0 6.0 0.00 0.00 0.00 76 1023.1
20200713042937 56 270 0.0 6.0 0.00 0.00 0.00 76 1023.1
20200713042830 56 270 1.0 6.0 0.00 0.00 0.00 76 1023.1
20200713042725 56 270 1.0 6.0 0.00 0.00 0.00 76 1023.1
20200713042622 56 270 1.0 6.0 0.00 0.00 0.00 76 1023.1
20200713042516 56 270 1.0 6.0 0.00 0.00 0.00 76 1023.1
20200713042413 56 270 1.0 6.0 0.00 0.00 0.00 76 1023.1
20200713042305 56 270 1.0 6.0 0.00 0.00 0.00 76 1023.1
20200713042201 56 270 1.0 6.0 0.00 0.00 0.00 76 1023.1
20200713042054 56 270 1.0 6.0 0.00 0.00 0.00 76 1023.1
20200713041951 56 271 1.0 6.0 0.00 0.00 0.00 76 1023.1
20200713041844 56 271 1.0 6.0 0.00 0.00 0.00 77 1023.1
20200713041739 56 271 0.0 6.0 0.00 0.00 0.00 77 1023.1
20200713041635 55 271 0.0 6.0 0.00 0.00 0.00 77 1023.1
20200713041533 55 270 0.0 6.0 0.00 0.00 0.00 77 1023.1
20200713041428 55 270 0.0 0.0 0.00 0.00 0.00 77 1023.1
20200713041320 55 268 0.0 3.0 0.00 0.00 0.00 77 1023.1
20200713041214 55 268 0.0 3.0 0.00 0.00 0.00 77 1023.1
20200713041105 55 268 0.0 3.0 0.00 0.00 0.00 77 1023.2
20200713041002 55 268 0.0 3.0 0.00 0.00 0.00 77 1023.2
20200713040859 55 268 0.0 2.0 0.00 0.00 0.00 77 1023.1
20200713040756 55 258 0.0 0.0 0.00 0.00 0.00 77 1023.2
20200713040649 55 258 0.0 0.0 0.00 0.00 0.00 77 1023.1
20200713040543 55 258 0.0 0.0 0.00 0.00 0.00 77 1023.1
20200713040439 55 258 0.0 0.0 0.00 0.00 0.00 77 1023.1
20200713040337 55 258 0.0 0.0 0.00 0.00 0.00 77 1023.1
20200713040232 55 258 0.0 0.0 0.00 0.00 0.00 77 1023.1
20200713040126 55 257 0.0 0.0 0.00 0.00 0.00 77 1023.2
20200713040023 55 258 0.0 0.0 0.00 0.00 0.00 77 1023.1
20200713035918 55 257 0.0 0.0 0.00 0.00 0.00 77 1023.1
20200713035814 55 257 0.0 0.0 0.00 0.00 0.00 77 1023.2
20200713035707 55 257 0.0 0.0 0.00 0.00 0.00 77 1023.1
20200713035605 55 249 0.0 0.0 0.00 0.00 0.00 78 1023.1
20200713035458 55 237 0.0 0.0 0.00 0.00 0.00 78 1023.1
20200713035351 55 237 0.0 0.0 0.00 0.00 0.00 78 1023.1
20200713035245 55 225 0.0 0.0 0.00 0.00 0.00 78 1023.1
20200713035138 55 205 0.0 0.0 0.00 0.00 0.00 78 1023.1
20200713035032 55 205 0.0 0.0 0.00 0.00 0.00 78 1023.2
20200713034928 54 205 0.0 0.0 0.00 0.00 0.00 78 1023.2
20200713034824 54 196 0.0 0.0 0.00 0.00 0.00 78 1023.1
20200713034722 54 182 0.0 0.0 0.00 0.00 0.00 78 1023.1
20200713034618 54 176 0.0 0.0 0.00 0.00 0.00 78 1023.2
20200713034514 54 176 0.0 0.0 0.00 0.00 0.00 78 1023.1
20200713034406 54 176 0.0 0.0 0.00 0.00 0.00 78 1023.1
20200713034302 54 176 0.0 0.0 0.00 0.00 0.00 78 1023.1
20200713034157 54 176 0.0 0.0 0.00 0.00 0.00 79 1023.1
20200713034051 54 176 0.0 0.0 0.00 0.00 0.00 78 1023.1
20200713033948 54 176 0.0 0.0 0.00 0.00 0.00 78 1023.1
20200713033842 54 176 0.0 0.0 0.00 0.00 0.00 79 1023.1
20200713033739 54 176 0.0 0.0 0.00 0.00 0.00 79 1023.1
20200713033632 54 176 0.0 0.0 0.00 0.00 0.00 79 1023.2
20200713033527 54 176 0.0 0.0 0.00 0.00 0.00 79 1023.1
20200713033422 54 176 0.0 0.0 0.00 0.00 0.00 79 1023.1
20200713033315 54 175 0.0 0.0 0.00 0.00 0.00 79 1023.2
20200713033211 54 175 0.0 0.0 0.00 0.00 0.00 79 1023.1
20200713033107 54 174 0.0 0.0 0.00 0.00 0.00 79 1023.2
20200713033002 54 174 0.0 0.0 0.00 0.00 0.00 79 1023.2
20200713032900 54 174 0.0 0.0 0.00 0.00 0.00 79 1023.2
20200713032755 54 174 0.0 0.0 0.00 0.00 0.00 79 1023.2
20200713032648 54 174 0.0 0.0 0.00 0.00 0.00 79 1023.2
20200713032542 54 174 0.0 0.0 0.00 0.00 0.00 79 1023.2
20200713032439 54 174 0.0 0.0 0.00 0.00 0.00 79 1023.2
20200713032331 54 174 0.0 0.0 0.00 0.00 0.00 79 1023.2
20200713032229 54 174 0.0 0.0 0.00 0.00 0.00 79 1023.2
20200713032126 54 174 0.0 0.0 0.00 0.00 0.00 79 1023.2
20200713032021 54 174 0.0 0.0 0.00 0.00 0.00 79 1023.2
20200713031916 54 174 0.0 0.0 0.00 0.00 0.00 79 1023.2
20200713031812 54 174 0.0 0.0 0.00 0.00 0.00 79 1023.2
20200713031707 54 174 0.0 0.0 0.00 0.00 0.00 79 1023.2
20200713031603 54 174 0.0 0.0 0.00 0.00 0.00 79 1023.2
20200713031456 54 174 0.0 0.0 0.00 0.00 0.00 79 1023.2
20200713031349 54 174 0.0 0.0 0.00 0.00 0.00 80 1023.3
20200713031243 54 174 0.0 0.0 0.00 0.00 0.00 80 1023.2
20200713031139 54 174 0.0 0.0 0.00 0.00 0.00 80 1023.3
20200713031032 54 174 0.0 0.0 0.00 0.00 0.00 80 1023.3
20200713030926 54 174 0.0 0.0 0.00 0.00 0.00 80 1023.3
20200713030821 54 174 0.0 0.0 0.00 0.00 0.00 80 1023.2
20200713030715 54 174 0.0 0.0 0.00 0.00 0.00 80 1023.3
20200713030610 54 174 0.0 0.0 0.00 0.00 0.00 80 1023.4
20200713030507 54 174 0.0 0.0 0.00 0.00 0.00 80 1023.3
20200713030401 54 174 0.0 0.0 0.00 0.00 0.00 80 1023.4
20200713030253 54 174 0.0 0.0 0.00 0.00 0.00 80 1023.3
20200713030147 54 174 0.0 0.0 0.00 0.00 0.00 80 1023.3
20200713030041 54 174 0.0 0.0 0.00 0.00 0.00 80 1023.3
20200713025939 54 174 0.0 0.0 0.00 0.00 0.00 80 1023.4
20200713025836 54 174 0.0 0.0 0.00 0.00 0.00 80 1023.4
20200713025733 54 174 0.0 0.0 0.00 0.00 0.00 80 1023.4
20200713025630 54 174 0.0 0.0 0.00 0.00 0.00 80 1023.4
20200713025524 54 174 0.0 0.0 0.00 0.00 0.00 80 1023.4
20200713025417 54 174 0.0 0.0 0.00 0.00 0.00 79 1023.4
20200713025315 54 174 0.0 0.0 0.00 0.00 0.00 79 1023.4
20200713025214 54 174 0.0 0.0 0.00 0.00 0.00 79 1023.4
20200713025108 54 174 0.0 0.0 0.00 0.00 0.00 79 1023.4
20200713025004 54 174 0.0 0.0 0.00 0.00 0.00 79 1023.4
20200713024857 54 174 0.0 0.0 0.00 0.00 0.00 79 1023.4
20200713024751 54 174 0.0 0.0 0.00 0.00 0.00 79 1023.4
20200713024647 54 174 0.0 0.0 0.00 0.00 0.00 79 1023.5
20200713024540 54 174 0.0 0.0 0.00 0.00 0.00 79 1023.5
20200713024433 54 174 0.0 0.0 0.00 0.00 0.00 79 1023.5
20200713024328 54 174 0.0 0.0 0.00 0.00 0.00 79 1023.5
20200713024222 54 174 0.0 0.0 0.00 0.00 0.00 79 1023.5
20200713024118 54 174 0.0 0.0 0.00 0.00 0.00 79 1023.6
20200713024011 54 174 0.0 0.0 0.00 0.00 0.00 79 1023.6
20200713023904 54 174 0.0 0.0 0.00 0.00 0.00 79 1023.6
20200713023759 54 174 0.0 0.0 0.00 0.00 0.00 79 1023.6
20200713023655 54 174 0.0 0.0 0.00 0.00 0.00 79 1023.6
20200713023552 54 174 0.0 0.0 0.00 0.00 0.00 79 1023.6
20200713023449 54 174 0.0 0.0 0.00 0.00 0.00 79 1023.6
20200713023344 54 174 0.0 0.0 0.00 0.00 0.00 79 1023.6
20200713023237 54 174 0.0 0.0 0.00 0.00 0.00 79 1023.7
20200713023133 54 174 0.0 0.0 0.00 0.00 0.00 79 1023.7
20200713023027 54 174 0.0 0.0 0.00 0.00 0.00 79 1023.7
20200713022920 54 174 0.0 0.0 0.00 0.00 0.00 79 1023.6
20200713022817 54 174 0.0 0.0 0.00 0.00 0.00 79 1023.6
20200713022710 54 174 0.0 0.0 0.00 0.00 0.00 79 1023.7
20200713022606 54 174 0.0 0.0 0.00 0.00 0.00 79 1023.7
20200713022503 54 174 0.0 0.0 0.00 0.00 0.00 79 1023.7
20200713022400 54 174 0.0 0.0 0.00 0.00 0.00 79 1023.7
20200713022253 54 174 0.0 0.0 0.00 0.00 0.00 79 1023.8
20200713022151 54 174 0.0 0.0 0.00 0.00 0.00 79 1023.8
20200713022046 54 174 0.0 0.0 0.00 0.00 0.00 79 1023.7
20200713021940 54 174 0.0 0.0 0.00 0.00 0.00 79 1023.8
20200713021836 54 174 0.0 0.0 0.00 0.00 0.00 79 1023.8
20200713021733 54 174 0.0 0.0 0.00 0.00 0.00 79 1023.8
20200713021627 54 174 0.0 0.0 0.00 0.00 0.00 79 1023.9
20200713021523 54 174 0.0 0.0 0.00 0.00 0.00 79 1023.9
20200713021419 54 174 0.0 0.0 0.00 0.00 0.00 79 1023.9
20200713021312 54 174 0.0 0.0 0.00 0.00 0.00 79 1023.9
20200713021209 54 174 0.0 0.0 0.00 0.00 0.00 79 1023.9
20200713021103 54 174 0.0 0.0 0.00 0.00 0.00 79 1023.9
20200713020957 54 174 0.0 0.0 0.00 0.00 0.00 79 1023.9
20200713020851 54 174 0.0 0.0 0.00 0.00 0.00 79 1023.9
20200713020745 54 174 0.0 0.0 0.00 0.00 0.00 79 1024.0
20200713020641 54 174 0.0 0.0 0.00 0.00 0.00 79 1024.0
20200713020538 54 174 0.0 0.0 0.00 0.00 0.00 79 1024.0
20200713020432 54 174 0.0 0.0 0.00 0.00 0.00 79 1024.0
20200713020327 54 174 0.0 0.0 0.00 0.00 0.00 79 1024.0
20200713020224 54 174 0.0 0.0 0.00 0.00 0.00 79 1024.0
20200713020121 54 174 0.0 0.0 0.00 0.00 0.00 79 1024.0
20200713020013 55 174 0.0 0.0 0.00 0.00 0.00 79 1024.0
20200713015909 55 174 0.0 0.0 0.00 0.00 0.00 79 1024.1
20200713015805 55 174 0.0 0.0 0.00 0.00 0.00 79 1024.1
20200713015702 55 174 0.0 0.0 0.00 0.00 0.00 79 1024.1
20200713015559 55 174 0.0 0.0 0.00 0.00 0.00 79 1024.1
20200713015455 55 174 0.0 0.0 0.00 0.00 0.00 79 1024.1
20200713015352 55 174 0.0 0.0 0.00 0.00 0.00 79 1024.1
20200713015250 55 174 0.0 0.0 0.00 0.00 0.00 79 1024.1
20200713015146 55 174 0.0 0.0 0.00 0.00 0.00 79 1024.1
20200713015042 55 174 0.0 0.0 0.00 0.00 0.00 79 1024.1
20200713014937 55 174 0.0 0.0 0.00 0.00 0.00 78 1024.1
20200713014832 55 174 0.0 0.0 0.00 0.00 0.00 78 1024.1
20200713014725 55 174 0.0 0.0 0.00 0.00 0.00 78 1024.1
20200713014617 55 174 0.0 0.0 0.00 0.00 0.00 78 1024.1
20200713014512 55 174 0.0 0.0 0.00 0.00 0.00 78 1024.1
20200713014408 55 174 0.0 0.0 0.00 0.00 0.00 78 1024.1
20200713014305 55 174 0.0 0.0 0.00 0.00 0.00 78 1024.2
20200713014159 55 174 0.0 0.0 0.00 0.00 0.00 78 1024.2
20200713014052 55 174 0.0 0.0 0.00 0.00 0.00 78 1024.2
20200713013945 55 174 0.0 0.0 0.00 0.00 0.00 78 1024.2
20200713013838 55 174 0.0 0.0 0.00 0.00 0.00 78 1024.2
20200713013735 55 174 0.0 0.0 0.00 0.00 0.00 78 1024.2
20200713013631 55 174 0.0 0.0 0.00 0.00 0.00 78 1024.1
20200713013526 55 174 0.0 0.0 0.00 0.00 0.00 78 1024.1
20200713013420 55 174 0.0 0.0 0.00 0.00 0.00 78 1024.1
20200713013313 55 174 0.0 0.0 0.00 0.00 0.00 78 1024.2
20200713013210 55 174 0.0 0.0 0.00 0.00 0.00 78 1024.2
20200713013103 55 174 0.0 0.0 0.00 0.00 0.00 78 1024.2
20200713013000 55 174 0.0 0.0 0.00 0.00 0.00 78 1024.2
20200713012853 55 174 0.0 0.0 0.00 0.00 0.00 78 1024.1
20200713012751 55 174 0.0 0.0 0.00 0.00 0.00 78 1024.2
20200713012647 55 174 0.0 0.0 0.00 0.00 0.00 78 1024.2
20200713012539 55 174 0.0 0.0 0.00 0.00 0.00 78 1024.2
20200713012435 56 174 0.0 0.0 0.00 0.00 0.00 77 1024.2
20200713012330 56 174 0.0 0.0 0.00 0.00 0.00 77 1024.2
20200713012227 56 174 0.0 0.0 0.00 0.00 0.00 77 1024.2
20200713012123 56 174 0.0 0.0 0.00 0.00 0.00 77 1024.2
20200713012020 56 174 0.0 0.0 0.00 0.00 0.00 77 1024.2
20200713011915 56 174 0.0 0.0 0.00 0.00 0.00 77 1024.2
20200713011808 56 174 0.0 0.0 0.00 0.00 0.00 77 1024.3
20200713011705 56 174 0.0 0.0 0.00 0.00 0.00 77 1024.2
20200713011601 56 174 0.0 0.0 0.00 0.00 0.00 77 1024.2
20200713011455 56 174 0.0 0.0 0.00 0.00 0.00 77 1024.3
20200713011351 56 174 0.0 0.0 0.00 0.00 0.00 77 1024.3
20200713011243 56 174 0.0 0.0 0.00 0.00 0.00 77 1024.3
20200713011140 56 174 0.0 0.0 0.00 0.00 0.00 76 1024.3
20200713011038 56 174 0.0 0.0 0.00 0.00 0.00 76 1024.3
20200713010931 56 174 0.0 0.0 0.00 0.00 0.00 76 1024.3
20200713010823 56 174 0.0 0.0 0.00 0.00 0.00 76 1024.3
20200713010717 56 174 0.0 0.0 0.00 0.00 0.00 76 1024.3
20200713010610 56 174 0.0 0.0 0.00 0.00 0.00 76 1024.3
20200713010507 56 174 0.0 0.0 0.00 0.00 0.00 76 1024.3
20200713010405 56 174 0.0 0.0 0.00 0.00 0.00 76 1024.4
20200713010300 56 174 0.0 0.0 0.00 0.00 0.00 76 1024.4
20200713010152 56 174 0.0 0.0 0.00 0.00 0.00 76 1024.3
20200713010046 56 174 0.0 0.0 0.00 0.00 0.00 76 1024.4
20200713005941 56 174 0.0 0.0 0.00 0.00 0.00 76 1024.4
20200713005840 56 174 0.0 0.0 0.00 0.00 0.00 76 1024.4
20200713005732 56 174 0.0 0.0 0.00 0.00 0.00 76 1024.4
20200713005624 56 174 0.0 0.0 0.00 0.00 0.00 76 1024.4
20200713005521 56 174 0.0 0.0 0.00 0.00 0.00 76 1024.4
20200713005417 56 174 0.0 0.0 0.00 0.00 0.00 76 1024.4
20200713005313 56 174 0.0 0.0 0.00 0.00 0.00 76 1024.4
20200713005207 56 174 0.0 0.0 0.00 0.00 0.00 76 1024.4
20200713005100 56 174 0.0 0.0 0.00 0.00 0.00 76 1024.4
20200713004955 56 174 0.0 0.0 0.00 0.00 0.00 76 1024.5
20200713004853 56 174 0.0 0.0 0.00 0.00 0.00 76 1024.5
20200713004748 56 174 0.0 0.0 0.00 0.00 0.00 75 1024.5
20200713004641 56 174 0.0 0.0 0.00 0.00 0.00 75 1024.5
20200713004538 56 174 0.0 0.0 0.00 0.00 0.00 75 1024.5
20200713004433 57 174 0.0 0.0 0.00 0.00 0.00 75 1024.5
20200713004326 57 174 0.0 0.0 0.00 0.00 0.00 75 1024.5
20200713004219 57 174 0.0 0.0 0.00 0.00 0.00 75 1024.5
20200713004112 57 174 0.0 0.0 0.00 0.00 0.00 75 1024.5
20200713004008 57 174 0.0 0.0 0.00 0.00 0.00 75 1024.5
20200713003906 57 174 0.0 0.0 0.00 0.00 0.00 75 1024.6
20200713003758 57 174 0.0 0.0 0.00 0.00 0.00 75 1024.6
20200713003651 57 174 0.0 0.0 0.00 0.00 0.00 75 1024.6
20200713003547 57 174 0.0 0.0 0.00 0.00 0.00 75 1024.7
20200713003443 57 174 0.0 0.0 0.00 0.00 0.00 75 1024.6
20200713003341 57 174 0.0 0.0 0.00 0.00 0.00 75 1024.6
20200713003238 57 174 0.0 0.0 0.00 0.00 0.00 75 1024.6